DAL561 KATL-PHNL

Flight info

Callsign DAL561
Flight time 8h 59m
Altitude 38000
Route CUTTN2 HANKO MEMFS ECIGE RZC BVO ICT HLC MBW DNW DBS DNJ/N0479F400 IMB ONP HEMLO A332 AUNTI R463 APACK MAGGI3
Aircraft A359/H-SDE2E3GHIJ3J4J5LM1ORWXY/LB1D1

Departure

Time 2026-05-07 15:45
Airport Hartsfield Jackson Atlanta International Airport (KATL)

Arrival

Time 2026-05-08 00:44
Airport Daniel K. Inouye International Airport (PHNL)
Time Latitude Longitude Altitude Speed Heading
2026-05-07 14:51 33.63863 -84.42051 1013 ft 0 kts 90°
2026-05-07 15:20 33.63863 -84.42057 1013 ft 1 kts 90°
2026-05-07 15:21 33.63863 -84.42069 1013 ft 1 kts 90°
2026-05-07 15:21 33.63863 -84.42080 1013 ft 1 kts 90°
2026-05-07 15:21 33.63863 -84.42092 1013 ft 2 kts 95°
2026-05-07 15:21 33.63865 -84.42106 1013 ft 2 kts 110°
2026-05-07 15:22 33.63870 -84.42119 1013 ft 2 kts 124°
2026-05-07 15:22 33.63878 -84.42131 1013 ft 2 kts 139°
2026-05-07 15:22 33.63887 -84.42139 1013 ft 2 kts 153°
2026-05-07 15:22 33.63898 -84.42145 1013 ft 2 kts 168°
2026-05-07 15:23 33.63910 -84.42147 1013 ft 2 kts 180°
2026-05-07 15:23 33.63920 -84.42146 1013 ft 2 kts 180°
2026-05-07 15:23 33.63928 -84.42146 1012 ft 0 kts 180°
2026-05-07 15:34 33.63925 -84.42146 1012 ft 4 kts 180°
2026-05-07 15:34 33.63899 -84.42147 1013 ft 0 kts 180°
2026-05-07 15:36 33.63898 -84.42147 1013 ft 0 kts 180°
2026-05-07 15:36 33.63891 -84.42147 1013 ft 2 kts 181°
2026-05-07 15:36 33.63867 -84.42147 1013 ft 5 kts 181°
2026-05-07 15:36 33.63834 -84.42152 1012 ft 0 kts 189°
2026-05-07 15:37 33.63815 -84.42162 1012 ft 4 kts 212°
2026-05-07 15:38 33.63801 -84.42193 1013 ft 3 kts 262°
2026-05-07 15:38 33.63812 -84.42215 1013 ft 3 kts 315°
2026-05-07 15:38 33.63836 -84.42228 1013 ft 5 kts 341°
2026-05-07 15:38 33.63876 -84.42238 1012 ft 7 kts 351°
2026-05-07 15:39 33.63946 -84.42244 1012 ft 13 kts 358°
2026-05-07 15:39 33.64058 -84.42241 1013 ft 18 kts
2026-05-07 15:39 33.64183 -84.42237 1013 ft 18 kts
2026-05-07 15:39 33.64290 -84.42164 1013 ft 18 kts 26°
2026-05-07 15:40 33.64411 -84.42146 1012 ft 17 kts
2026-05-07 15:40 33.64519 -84.42128 1012 ft 14 kts 41°
2026-05-07 15:40 33.64542 -84.42016 1012 ft 14 kts 89°
2026-05-07 15:40 33.64542 -84.41894 1013 ft 15 kts 90°
2026-05-07 15:41 33.64542 -84.41768 1013 ft 15 kts 90°
2026-05-07 15:41 33.64542 -84.41636 1013 ft 16 kts 90°
2026-05-07 15:41 33.64543 -84.41502 1013 ft 17 kts 90°
2026-05-07 15:41 33.64543 -84.41361 1013 ft 17 kts 90°
2026-05-07 15:42 33.64544 -84.41214 1013 ft 18 kts 90°
2026-05-07 15:42 33.64543 -84.41063 1013 ft 18 kts 90°
2026-05-07 15:42 33.64543 -84.40915 1013 ft 12 kts 90°
2026-05-07 15:42 33.64555 -84.40830 1012 ft 10 kts 53°
2026-05-07 15:43 33.64569 -84.40788 1012 ft 5 kts 87°
2026-05-07 15:43 33.64570 -84.40712 1012 ft 15 kts 90°
2026-05-07 15:43 33.64585 -84.40590 1011 ft 11 kts 52°
2026-05-07 15:43 33.64656 -84.40575 1010 ft 10 kts 342°
2026-05-07 15:44 33.64681 -84.40649 1010 ft 9 kts 269°
2026-05-07 15:44 33.64680 -84.40713 1010 ft 8 kts 269°
2026-05-07 15:44 33.64680 -84.40870 1012 ft 46 kts 270°
2026-05-07 15:44 33.64680 -84.41521 1015 ft 109 kts 270°
2026-05-07 15:45 33.64680 -84.42656 1011 ft 162 kts 270°
2026-05-07 15:45 33.64675 -84.44103 1482 ft 170 kts 269°
2026-05-07 15:45 33.64716 -84.45474 2323 ft 165 kts 277°
2026-05-07 15:45 33.64920 -84.46911 2559 ft 184 kts 281°
2026-05-07 15:46 33.65514 -84.50229 3106 ft 222 kts 282°
2026-05-07 15:46 33.65862 -84.52115 3423 ft 241 kts 282°
2026-05-07 15:46 33.66233 -84.54118 3773 ft 254 kts 282°
2026-05-07 15:47 33.66620 -84.56220 4312 ft 260 kts 282°
2026-05-07 15:47 33.67013 -84.58357 4925 ft 264 kts 282°
2026-05-07 15:47 33.67398 -84.60522 5513 ft 266 kts 281°
2026-05-07 15:47 33.67766 -84.62714 6092 ft 269 kts 281°
2026-05-07 15:48 33.68135 -84.64929 6701 ft 272 kts 281°
2026-05-07 15:48 33.68511 -84.67165 7287 ft 274 kts 281°
2026-05-07 15:48 33.68890 -84.69425 7881 ft 277 kts 281°
2026-05-07 15:48 33.69276 -84.71702 8463 ft 279 kts 281°
2026-05-07 15:49 33.69665 -84.74003 9055 ft 282 kts 281°
2026-05-07 15:49 33.70105 -84.76303 9633 ft 285 kts 285°
2026-05-07 15:49 33.70692 -84.78593 10202 ft 288 kts 288°
2026-05-07 15:49 33.71329 -84.80936 10473 ft 302 kts 288°
2026-05-07 15:50 33.71990 -84.83362 10699 ft 317 kts 288°
2026-05-07 15:50 33.72687 -84.85932 10924 ft 331 kts 288°
2026-05-07 15:50 33.73415 -84.88628 11169 ft 344 kts 288°
2026-05-07 15:50 33.74167 -84.91416 11391 ft 357 kts 288°
2026-05-07 15:51 33.74933 -84.94263 11609 ft 368 kts 288°
2026-05-07 15:51 33.75741 -84.97264 11946 ft 375 kts 288°
2026-05-07 15:51 33.76545 -85.00259 12375 ft 378 kts 288°
2026-05-07 15:51 33.77347 -85.03245 12798 ft 381 kts 288°
2026-05-07 15:52 33.78161 -85.06286 13227 ft 383 kts 288°
2026-05-07 15:52 33.78982 -85.09354 13632 ft 386 kts 288°
2026-05-07 15:52 33.79807 -85.12440 14053 ft 389 kts 288°
2026-05-07 15:52 33.80636 -85.15546 14471 ft 391 kts 288°
2026-05-07 15:53 33.81451 -85.18674 14860 ft 393 kts 285°
2026-05-07 15:53 33.81945 -85.21910 15281 ft 395 kts 275°
2026-05-07 15:53 33.82136 -85.25217 15695 ft 398 kts 273°
2026-05-07 15:53 33.82276 -85.28554 16084 ft 400 kts 273°
2026-05-07 15:54 33.82416 -85.31908 16480 ft 402 kts 273°
2026-05-07 15:54 33.82560 -85.35275 16857 ft 405 kts 273°
2026-05-07 15:54 33.82707 -85.38664 17226 ft 407 kts 273°
2026-05-07 15:54 33.82856 -85.42072 17609 ft 409 kts 273°
2026-05-07 15:55 33.83006 -85.45507 17972 ft 411 kts 273°
2026-05-07 15:55 33.83154 -85.48907 18322 ft 413 kts 273°
2026-05-07 15:55 33.83305 -85.52385 18674 ft 415 kts 273°
2026-05-07 15:55 33.83455 -85.55865 19011 ft 418 kts 273°
2026-05-07 15:56 33.83605 -85.59361 19334 ft 420 kts 273°
2026-05-07 15:56 33.83795 -85.62883 19670 ft 422 kts 276°
2026-05-07 15:56 33.84324 -85.66362 19984 ft 424 kts 285°
2026-05-07 15:56 33.85156 -85.69765 20314 ft 425 kts 288°
2026-05-07 15:57 33.86113 -85.73144 20610 ft 428 kts 289°
2026-05-07 15:57 33.87114 -85.76471 20912 ft 429 kts 290°
2026-05-07 15:57 33.88149 -85.79858 21221 ft 431 kts 290°
2026-05-07 15:57 33.89181 -85.83258 21516 ft 433 kts 290°
2026-05-07 15:58 33.90204 -85.86679 21813 ft 435 kts 289°
2026-05-07 15:58 33.91218 -85.90116 22101 ft 437 kts 289°
2026-05-07 15:58 33.92227 -85.93574 22375 ft 439 kts 289°
2026-05-07 15:58 33.93235 -85.97050 22653 ft 441 kts 289°
2026-05-07 15:59 33.94245 -86.00544 22936 ft 442 kts 289°
2026-05-07 15:59 33.95247 -86.04014 23210 ft 444 kts 289°
2026-05-07 15:59 33.96261 -86.07529 23481 ft 446 kts 289°
2026-05-07 15:59 33.97281 -86.11065 23754 ft 447 kts 289°
2026-05-07 16:00 33.98306 -86.14620 24015 ft 449 kts 289°
2026-05-07 16:00 33.99331 -86.18180 24271 ft 451 kts 289°
2026-05-07 16:00 34.00360 -86.21760 24523 ft 453 kts 289°
2026-05-07 16:00 34.01395 -86.25361 24778 ft 455 kts 289°
2026-05-07 16:01 34.02431 -86.28974 24993 ft 457 kts 289°
2026-05-07 16:01 34.03469 -86.32596 25236 ft 458 kts 289°
2026-05-07 16:01 34.04512 -86.36245 25477 ft 460 kts 289°
2026-05-07 16:01 34.05556 -86.39897 25713 ft 462 kts 289°
2026-05-07 16:02 34.06602 -86.43566 25950 ft 463 kts 289°
2026-05-07 16:02 34.07650 -86.47245 26199 ft 465 kts 289°
2026-05-07 16:02 34.08702 -86.50937 26432 ft 466 kts 289°
2026-05-07 16:02 34.09756 -86.54647 26664 ft 468 kts 289°
2026-05-07 16:03 34.10813 -86.58370 26894 ft 470 kts 289°
2026-05-07 16:03 34.11871 -86.62101 27133 ft 471 kts 289°
2026-05-07 16:03 34.12936 -86.65859 27365 ft 473 kts 289°
2026-05-07 16:03 34.13999 -86.69619 27605 ft 474 kts 289°
2026-05-07 16:04 34.15065 -86.73394 27834 ft 476 kts 289°
2026-05-07 16:04 34.16137 -86.77194 28054 ft 478 kts 289°
2026-05-07 16:04 34.17193 -86.80945 28287 ft 479 kts 289°
2026-05-07 16:04 34.18267 -86.84762 28488 ft 481 kts 289°
2026-05-07 16:05 34.19345 -86.88602 28704 ft 483 kts 288°
2026-05-07 16:05 34.20425 -86.92452 28903 ft 484 kts 288°
2026-05-07 16:05 34.21508 -86.96316 29107 ft 486 kts 288°
2026-05-07 16:05 34.22595 -87.00198 29306 ft 487 kts 288°
2026-05-07 16:06 34.23667 -87.04035 29511 ft 489 kts 288°
2026-05-07 16:06 34.24399 -87.06660 29647 ft 490 kts 288°
2026-05-07 16:06 34.25844 -87.11849 29912 ft 492 kts 288°
2026-05-07 16:06 34.26934 -87.15770 30098 ft 493 kts 288°
2026-05-07 16:07 34.27610 -87.18201 30224 ft 494 kts 288°
2026-05-07 16:09 34.28300 -87.20688 30350 ft 495 kts 288°
2026-05-07 16:09 34.29395 -87.24637 30641 ft 494 kts 288°
2026-05-07 16:10 34.30485 -87.28571 30963 ft 493 kts 288°
2026-05-07 16:10 34.31557 -87.32450 31266 ft 492 kts 288°
2026-05-07 16:10 34.32640 -87.36371 31555 ft 491 kts 288°
2026-05-07 16:10 34.33721 -87.40290 31855 ft 491 kts 288°
2026-05-07 16:11 34.34798 -87.44203 32138 ft 490 kts 288°
2026-05-07 16:11 34.35874 -87.48117 32398 ft 490 kts 288°
2026-05-07 16:11 34.36947 -87.52027 32665 ft 489 kts 288°
2026-05-07 16:11 34.38021 -87.55942 32929 ft 489 kts 288°
2026-05-07 16:12 34.39091 -87.59850 33191 ft 488 kts 288°
2026-05-07 16:12 34.40159 -87.63756 33442 ft 488 kts 288°
2026-05-07 16:12 34.41225 -87.67659 33705 ft 487 kts 288°
2026-05-07 16:12 34.42287 -87.71553 33967 ft 487 kts 288°
2026-05-07 16:13 34.43347 -87.75449 34237 ft 486 kts 288°
2026-05-07 16:13 34.44402 -87.79331 34484 ft 485 kts 288°
2026-05-07 16:13 34.45442 -87.83163 34718 ft 485 kts 288°
2026-05-07 16:13 34.46494 -87.87044 34964 ft 484 kts 288°
2026-05-07 16:14 34.47546 -87.90929 35201 ft 484 kts 288°
2026-05-07 16:14 34.48592 -87.94800 35441 ft 483 kts 288°
2026-05-07 16:14 34.49637 -87.98672 35675 ft 483 kts 288°
2026-05-07 16:14 34.50679 -88.02538 35913 ft 482 kts 288°
2026-05-07 16:15 34.51718 -88.06399 36145 ft 482 kts 288°
2026-05-07 16:15 34.52758 -88.10268 36366 ft 481 kts 288°
2026-05-07 16:15 34.53795 -88.14130 36569 ft 481 kts 288°
2026-05-07 16:15 34.54831 -88.17994 36757 ft 482 kts 288°
2026-05-07 16:16 34.55868 -88.21870 36948 ft 481 kts 288°
2026-05-07 16:16 34.56888 -88.25685 37135 ft 481 kts 288°
2026-05-07 16:16 34.57920 -88.29552 37309 ft 481 kts 288°
2026-05-07 16:16 34.58951 -88.33422 37483 ft 481 kts 288°
2026-05-07 16:17 34.59981 -88.37291 37647 ft 481 kts 288°
2026-05-07 16:17 34.61009 -88.41160 37808 ft 481 kts 288°
2026-05-07 16:17 34.62036 -88.45030 37951 ft 482 kts 288°
2026-05-07 16:18 34.64097 -88.52816 37999 ft 487 kts 288°
2026-05-07 16:18 34.66170 -88.60667 38001 ft 488 kts 288°
2026-05-07 16:19 34.68236 -88.68516 38000 ft 487 kts 288°
2026-05-07 16:19 34.70284 -88.76316 38001 ft 487 kts 287°
2026-05-07 16:20 34.72339 -88.84172 38000 ft 487 kts 287°
2026-05-07 16:20 34.74392 -88.92039 38000 ft 487 kts 287°
2026-05-07 16:21 34.76440 -88.99910 38000 ft 487 kts 287°
2026-05-07 16:21 34.78481 -89.07779 38000 ft 487 kts 287°
2026-05-07 16:22 34.80502 -89.15593 38000 ft 487 kts 287°
2026-05-07 16:22 34.82531 -89.23464 38000 ft 487 kts 287°
2026-05-07 16:23 34.84557 -89.31342 38000 ft 487 kts 287°
2026-05-07 16:23 34.86578 -89.39227 38000 ft 487 kts 287°
2026-05-07 16:24 34.88581 -89.47064 38000 ft 487 kts 287°
2026-05-07 16:24 34.90589 -89.54948 38000 ft 487 kts 287°
2026-05-07 16:25 34.92593 -89.62838 38000 ft 487 kts 287°
2026-05-07 16:25 34.94593 -89.70735 38001 ft 487 kts 287°
2026-05-07 16:26 34.96587 -89.78633 38000 ft 487 kts 287°
2026-05-07 16:26 34.98561 -89.86476 38000 ft 487 kts 287°
2026-05-07 16:27 35.00556 -89.94427 38000 ft 487 kts 287°
2026-05-07 16:27 35.02561 -90.02258 38000 ft 487 kts 289°
2026-05-07 16:28 35.04877 -90.10040 37999 ft 487 kts 290°
2026-05-07 16:28 35.07245 -90.17792 38000 ft 487 kts 290°
2026-05-07 16:29 35.09565 -90.25559 38000 ft 487 kts 290°
2026-05-07 16:29 35.11849 -90.33342 38000 ft 487 kts 289°
2026-05-07 16:30 35.14110 -90.41091 38001 ft 487 kts 289°
2026-05-07 16:30 35.16380 -90.48889 38001 ft 487 kts 289°
2026-05-07 16:31 35.18646 -90.56688 38000 ft 487 kts 289°
2026-05-07 16:31 35.20907 -90.64490 38000 ft 487 kts 289°
2026-05-07 16:32 35.23165 -90.72304 37999 ft 487 kts 289°
2026-05-07 16:32 35.25418 -90.80122 38000 ft 487 kts 289°
2026-05-07 16:33 35.27663 -90.87933 38000 ft 487 kts 289°
2026-05-07 16:33 35.29892 -90.95710 38000 ft 487 kts 289°
2026-05-07 16:34 35.32132 -91.03547 38000 ft 487 kts 289°
2026-05-07 16:34 35.34366 -91.11386 38000 ft 487 kts 289°
2026-05-07 16:35 35.36590 -91.19213 38000 ft 487 kts 289°
2026-05-07 16:35 35.38811 -91.27049 38000 ft 487 kts 289°
2026-05-07 16:36 35.41024 -91.34883 38000 ft 487 kts 289°
2026-05-07 16:36 35.43221 -91.42678 38001 ft 487 kts 289°
2026-05-07 16:37 35.45428 -91.50532 38000 ft 487 kts 289°
2026-05-07 16:37 35.47630 -91.58391 38000 ft 487 kts 289°
2026-05-07 16:38 35.49832 -91.66273 38000 ft 487 kts 289°
2026-05-07 16:38 35.52026 -91.74150 38000 ft 487 kts 289°
2026-05-07 16:39 35.54178 -91.81896 38001 ft 487 kts 289°
2026-05-07 16:39 35.56104 -91.88845 37998 ft 488 kts 289°
2026-05-07 16:40 35.58139 -91.95894 37999 ft 488 kts 291°
2026-05-07 16:40 35.60525 -92.03170 38000 ft 488 kts 292°
2026-05-07 16:41 35.62827 -92.10190 38000 ft 488 kts 291°
2026-05-07 16:41 35.65110 -92.17354 38000 ft 488 kts 291°
2026-05-07 16:42 35.67353 -92.24470 38001 ft 488 kts 291°
2026-05-07 16:42 35.69805 -92.32266 38001 ft 488 kts 291°
2026-05-07 16:43 35.72241 -92.40025 38000 ft 489 kts 291°
2026-05-07 16:43 35.74687 -92.47830 38000 ft 489 kts 291°
2026-05-07 16:44 35.77132 -92.55655 38001 ft 489 kts 291°
2026-05-07 16:44 35.79569 -92.63476 37999 ft 489 kts 291°
2026-05-07 16:45 35.82001 -92.71303 38000 ft 489 kts 291°
2026-05-07 16:45 35.84428 -92.79135 38000 ft 490 kts 291°
2026-05-07 16:46 35.86838 -92.86930 37999 ft 489 kts 290°
2026-05-07 16:46 35.89257 -92.94776 38000 ft 489 kts 290°
2026-05-07 16:47 35.91668 -93.02620 38000 ft 489 kts 290°
2026-05-07 16:47 35.94075 -93.10469 38000 ft 489 kts 290°
2026-05-07 16:48 35.96475 -93.18321 38000 ft 489 kts 290°
2026-05-07 16:48 35.98876 -93.26194 38000 ft 489 kts 290°
2026-05-07 16:49 36.01267 -93.34060 38000 ft 490 kts 290°
2026-05-07 16:49 36.03658 -93.41946 38000 ft 490 kts 290°
2026-05-07 16:50 36.06030 -93.49789 38000 ft 490 kts 290°
2026-05-07 16:50 36.08413 -93.57691 38000 ft 490 kts 290°
2026-05-07 16:51 36.10788 -93.65587 38001 ft 490 kts 290°
2026-05-07 16:51 36.13156 -93.73486 38000 ft 489 kts 290°
2026-05-07 16:52 36.15519 -93.81386 38000 ft 489 kts 290°
2026-05-07 16:52 36.17880 -93.89302 38001 ft 489 kts 290°
2026-05-07 16:53 36.20233 -93.97215 38001 ft 489 kts 290°
2026-05-07 16:53 36.22562 -94.05070 38000 ft 489 kts 290°
2026-05-07 16:54 36.24904 -94.12989 38000 ft 489 kts 290°
2026-05-07 16:54 36.27308 -94.20654 38000 ft 489 kts 292°
2026-05-07 16:55 36.29012 -94.25887 37999 ft 489 kts 292°
2026-05-07 16:55 36.31511 -94.33635 38000 ft 489 kts 291°
2026-05-07 16:56 36.33674 -94.40436 37999 ft 489 kts 291°
2026-05-07 16:56 36.37324 -94.51980 38001 ft 489 kts 291°
2026-05-07 16:57 36.39604 -94.59211 38001 ft 489 kts 291°
2026-05-07 16:57 36.42077 -94.67069 38000 ft 488 kts 291°
2026-05-07 16:58 36.44546 -94.74935 38000 ft 489 kts 291°
2026-05-07 16:58 36.46961 -94.82650 37998 ft 489 kts 291°
2026-05-07 16:59 36.49028 -94.89272 38000 ft 488 kts 291°
2026-05-07 16:59 36.51408 -94.96918 38001 ft 488 kts 291°
2026-05-07 17:00 36.53411 -95.03365 37999 ft 488 kts 291°
2026-05-07 17:00 36.55861 -95.11271 38000 ft 488 kts 291°
2026-05-07 17:01 36.57917 -95.17923 37999 ft 488 kts 291°
2026-05-07 17:01 36.60367 -95.25871 38001 ft 488 kts 291°
2026-05-07 17:02 36.62794 -95.33768 38000 ft 488 kts 291°
2026-05-07 17:02 36.65216 -95.41667 38000 ft 488 kts 291°
2026-05-07 17:03 36.67632 -95.49571 38000 ft 488 kts 290°
2026-05-07 17:03 36.70042 -95.57474 38000 ft 488 kts 290°
2026-05-07 17:04 36.72445 -95.65380 38000 ft 488 kts 290°
2026-05-07 17:04 36.74776 -95.73070 37999 ft 488 kts 290°
2026-05-07 17:05 36.76807 -95.79785 37999 ft 488 kts 290°
2026-05-07 17:05 36.79182 -95.87658 38000 ft 488 kts 290°
2026-05-07 17:06 36.81570 -95.95598 38000 ft 488 kts 290°
2026-05-07 17:06 36.84447 -96.03251 38001 ft 488 kts 303°
2026-05-07 17:07 36.88341 -96.10194 38000 ft 488 kts 306°
2026-05-07 17:07 36.92397 -96.17001 38001 ft 488 kts 307°
2026-05-07 17:08 36.96440 -96.23757 38000 ft 488 kts 306°
2026-05-07 17:08 37.00489 -96.30577 38000 ft 488 kts 306°
2026-05-07 17:09 37.04532 -96.37426 38000 ft 488 kts 306°
2026-05-07 17:09 37.08570 -96.44289 38000 ft 488 kts 306°
2026-05-07 17:10 37.11863 -96.49894 37998 ft 489 kts 306°
2026-05-07 17:10 37.15791 -96.56591 38001 ft 489 kts 306°
2026-05-07 17:11 37.19451 -96.62842 37999 ft 489 kts 306°
2026-05-07 17:11 37.23097 -96.69082 38000 ft 489 kts 306°
2026-05-07 17:12 37.26733 -96.75315 38000 ft 489 kts 306°
2026-05-07 17:12 37.30511 -96.81806 38002 ft 489 kts 306°
2026-05-07 17:13 37.34085 -96.87957 38000 ft 489 kts 306°
2026-05-07 17:13 37.37666 -96.94129 38002 ft 489 kts 306°
2026-05-07 17:14 37.41369 -97.00527 37999 ft 489 kts 306°
2026-05-07 17:14 37.45076 -97.06944 38001 ft 489 kts 306°
2026-05-07 17:15 37.48806 -97.13411 38000 ft 489 kts 306°
2026-05-07 17:15 37.52308 -97.19495 38001 ft 489 kts 306°
2026-05-07 17:16 37.56086 -97.26073 38001 ft 489 kts 306°
2026-05-07 17:16 37.59806 -97.32560 37999 ft 489 kts 306°
2026-05-07 17:17 37.63382 -97.38810 37999 ft 489 kts 306°
2026-05-07 17:17 37.67042 -97.45218 38000 ft 489 kts 306°
2026-05-07 17:18 37.70661 -97.51565 38001 ft 489 kts 306°
2026-05-07 17:18 37.74399 -97.58137 38003 ft 489 kts 306°
2026-05-07 17:19 37.78437 -97.65066 38000 ft 490 kts 307°
2026-05-07 17:19 37.82560 -97.71930 38000 ft 490 kts 307°
2026-05-07 17:20 37.86678 -97.78814 38001 ft 490 kts 307°
2026-05-07 17:20 37.90750 -97.85674 38001 ft 490 kts 307°
2026-05-07 17:21 37.94838 -97.92595 38000 ft 490 kts 307°
2026-05-07 17:21 37.98916 -97.99516 38000 ft 490 kts 307°
2026-05-07 17:22 38.02993 -98.06447 38000 ft 490 kts 306°
2026-05-07 17:22 38.07069 -98.13390 38000 ft 490 kts 306°
2026-05-07 17:23 38.11111 -98.20290 38000 ft 490 kts 306°
2026-05-07 17:23 38.15175 -98.27242 38000 ft 490 kts 306°
2026-05-07 17:24 38.19236 -98.34204 38000 ft 490 kts 306°
2026-05-07 17:24 38.23053 -98.40760 37999 ft 490 kts 306°
2026-05-07 17:25 38.26682 -98.47007 38000 ft 490 kts 306°
2026-05-07 17:25 38.30398 -98.53415 37999 ft 490 kts 306°
2026-05-07 17:26 38.34108 -98.59826 37999 ft 490 kts 306°
2026-05-07 17:26 38.37743 -98.66118 37999 ft 491 kts 306°
2026-05-07 17:27 38.41759 -98.73086 38001 ft 491 kts 306°
2026-05-07 17:27 38.45804 -98.80117 38000 ft 491 kts 306°
2026-05-07 17:28 38.49836 -98.87142 38001 ft 491 kts 306°
2026-05-07 17:28 38.53870 -98.94186 38000 ft 491 kts 306°
2026-05-07 17:29 38.57869 -99.01183 38000 ft 491 kts 306°
2026-05-07 17:29 38.61894 -99.08242 38001 ft 491 kts 306°
2026-05-07 17:30 38.65912 -99.15304 38000 ft 491 kts 306°
2026-05-07 17:30 38.69929 -99.22378 38000 ft 491 kts 306°
2026-05-07 17:31 38.73940 -99.29458 38000 ft 491 kts 306°
2026-05-07 17:31 38.77943 -99.36540 38000 ft 491 kts 306°
2026-05-07 17:32 38.81947 -99.43638 38000 ft 491 kts 306°
2026-05-07 17:32 38.85276 -99.49551 38000 ft 491 kts 306°
2026-05-07 17:33 38.89922 -99.57822 38000 ft 491 kts 306°
2026-05-07 17:33 38.93915 -99.64949 38000 ft 491 kts 306°
2026-05-07 17:34 38.97907 -99.72089 38000 ft 491 kts 306°
2026-05-07 17:34 39.01893 -99.79234 38000 ft 492 kts 305°
2026-05-07 17:35 39.05878 -99.86394 38001 ft 492 kts 305°
2026-05-07 17:35 39.09863 -99.93568 38000 ft 492 kts 305°
2026-05-07 17:36 39.13808 -100.00687 38000 ft 492 kts 305°
2026-05-07 17:36 39.17783 -100.07877 38000 ft 492 kts 305°
2026-05-07 17:37 39.21749 -100.15065 38000 ft 492 kts 305°
2026-05-07 17:37 39.25715 -100.22271 38000 ft 492 kts 305°
2026-05-07 17:38 39.29520 -100.29623 38001 ft 492 kts 302°
2026-05-07 17:38 39.32645 -100.36177 38000 ft 492 kts 301°
2026-05-07 17:39 39.35994 -100.43216 38001 ft 492 kts 302°
2026-05-07 17:39 39.39309 -100.50073 38000 ft 492 kts 302°
2026-05-07 17:40 39.42889 -100.57433 38000 ft 493 kts 302°
2026-05-07 17:40 39.45560 -100.62935 38000 ft 493 kts 302°
2026-05-07 17:41 39.49435 -100.70943 38000 ft 493 kts 302°
2026-05-07 17:41 39.52410 -100.77104 38000 ft 493 kts 302°
2026-05-07 17:42 39.56270 -100.85119 38000 ft 493 kts 302°
2026-05-07 17:42 39.58888 -100.90565 38000 ft 493 kts 302°
2026-05-07 17:43 39.62963 -100.99062 38001 ft 493 kts 302°
2026-05-07 17:43 39.65576 -101.04523 38001 ft 493 kts 302°
2026-05-07 17:44 39.68878 -101.11436 38000 ft 493 kts 301°
2026-05-07 17:44 39.72183 -101.18372 38000 ft 493 kts 301°
2026-05-07 17:45 39.75508 -101.25365 38000 ft 493 kts 301°
2026-05-07 17:45 39.79008 -101.32743 38001 ft 493 kts 301°
2026-05-07 17:46 39.82096 -101.39266 38000 ft 494 kts 301°
2026-05-07 17:46 39.85697 -101.46891 38000 ft 494 kts 301°
2026-05-07 17:47 39.88704 -101.53271 38001 ft 494 kts 301°
2026-05-07 17:47 39.92292 -101.60903 38001 ft 494 kts 301°
2026-05-07 17:48 39.95654 -101.68072 38000 ft 493 kts 301°
2026-05-07 17:48 39.99092 -101.75417 38000 ft 493 kts 301°
2026-05-07 17:49 40.02033 -101.81714 38001 ft 494 kts 301°
2026-05-07 17:49 40.05548 -101.89260 38002 ft 494 kts 301°
2026-05-07 17:50 40.08478 -101.95563 38001 ft 493 kts 301°
2026-05-07 17:50 40.11957 -102.03063 38000 ft 494 kts 301°
2026-05-07 17:51 40.15534 -102.10793 38000 ft 494 kts 301°
2026-05-07 17:51 40.19087 -102.18492 38001 ft 494 kts 301°
2026-05-07 17:52 40.22638 -102.26205 38001 ft 495 kts 301°
2026-05-07 17:52 40.26183 -102.33924 37999 ft 495 kts 301°
2026-05-07 17:53 40.29701 -102.41603 38000 ft 495 kts 301°
2026-05-07 17:53 40.33237 -102.49340 38000 ft 495 kts 301°
2026-05-07 17:54 40.36769 -102.57088 38000 ft 495 kts 301°
2026-05-07 17:54 40.40296 -102.64844 38001 ft 495 kts 301°
2026-05-07 17:55 40.43824 -102.72624 38000 ft 495 kts 301°
2026-05-07 17:55 40.47344 -102.80404 38000 ft 496 kts 300°
2026-05-07 17:56 40.50859 -102.88192 38000 ft 496 kts 300°
2026-05-07 17:56 40.54377 -102.96008 38000 ft 496 kts 300°
2026-05-07 17:57 40.57293 -103.02503 38000 ft 496 kts 300°
2026-05-07 17:57 40.61388 -103.11644 38000 ft 496 kts 300°
2026-05-07 17:58 40.64884 -103.19470 38001 ft 495 kts 300°
2026-05-07 17:58 40.68349 -103.27247 38000 ft 495 kts 300°
2026-05-07 17:59 40.71855 -103.35138 38000 ft 495 kts 300°
2026-05-07 17:59 40.75311 -103.42933 38000 ft 496 kts 300°
2026-05-07 18:00 40.78788 -103.50798 38000 ft 496 kts 300°
2026-05-07 18:00 40.82262 -103.58676 38000 ft 496 kts 300°
2026-05-07 18:01 40.85729 -103.66559 38000 ft 496 kts 300°
2026-05-07 18:01 40.89200 -103.74470 38000 ft 497 kts 300°
2026-05-07 18:02 40.94370 -103.86294 38000 ft 498 kts 300°
2026-05-07 18:03 40.97832 -103.94237 38000 ft 498 kts 300°
2026-05-07 18:03 41.01291 -104.02193 38000 ft 498 kts 300°
2026-05-07 18:04 41.04745 -104.10160 38000 ft 498 kts 300°
2026-05-07 18:04 41.08192 -104.18131 38000 ft 498 kts 300°
2026-05-07 18:05 41.11608 -104.26052 38000 ft 498 kts 300°
2026-05-07 18:05 41.15040 -104.34030 38000 ft 498 kts 300°
2026-05-07 18:06 41.18471 -104.42029 38000 ft 498 kts 299°
2026-05-07 18:06 41.21900 -104.50042 38000 ft 499 kts 299°
2026-05-07 18:07 41.25325 -104.58068 38000 ft 499 kts 299°
2026-05-07 18:07 41.28741 -104.66096 38001 ft 499 kts 299°
2026-05-07 18:08 41.32157 -104.74144 38000 ft 499 kts 299°
2026-05-07 18:08 41.35569 -104.82204 38000 ft 500 kts 299°
2026-05-07 18:09 41.38959 -104.90232 38000 ft 500 kts 299°
2026-05-07 18:09 41.42368 -104.98331 38001 ft 500 kts 299°
2026-05-07 18:10 41.45767 -105.06426 38000 ft 500 kts 299°
2026-05-07 18:10 41.49163 -105.14534 38000 ft 501 kts 299°
2026-05-07 18:11 41.52543 -105.22629 38000 ft 501 kts 299°
2026-05-07 18:11 41.55928 -105.30756 38000 ft 501 kts 299°
2026-05-07 18:12 41.59312 -105.38905 38000 ft 502 kts 299°
2026-05-07 18:12 41.62698 -105.47079 38000 ft 503 kts 298°
2026-05-07 18:13 41.66080 -105.55267 38000 ft 503 kts 298°
2026-05-07 18:13 41.69190 -105.62817 38000 ft 502 kts 298°
2026-05-07 18:14 41.72394 -105.70615 38001 ft 502 kts 298°
2026-05-07 18:14 41.74940 -105.76827 38001 ft 501 kts 298°
2026-05-07 18:15 41.78192 -105.84778 38000 ft 502 kts 298°
2026-05-07 18:15 41.81074 -105.91844 38001 ft 501 kts 298°
2026-05-07 18:16 41.84345 -105.99886 38001 ft 501 kts 298°
2026-05-07 18:16 41.87940 -106.07907 38001 ft 501 kts 303°
2026-05-07 18:17 41.91780 -106.15451 37999 ft 501 kts 304°
2026-05-07 18:17 41.95162 -106.22114 38000 ft 501 kts 303°
2026-05-07 18:18 41.98773 -106.29428 38001 ft 501 kts 303°
2026-05-07 18:18 42.02358 -106.36802 38000 ft 501 kts 303°
2026-05-07 18:19 42.06138 -106.44603 38000 ft 501 kts 303°
2026-05-07 18:19 42.09946 -106.52473 38000 ft 502 kts 303°
2026-05-07 18:20 42.13761 -106.60374 37999 ft 503 kts 303°
2026-05-07 18:20 42.17578 -106.68300 38000 ft 504 kts 303°
2026-05-07 18:21 42.21367 -106.76188 38001 ft 503 kts 303°
2026-05-07 18:21 42.25156 -106.84097 38000 ft 501 kts 303°
2026-05-07 18:22 42.28924 -106.91985 38001 ft 500 kts 302°
2026-05-07 18:22 42.32685 -106.99877 38000 ft 499 kts 302°
2026-05-07 18:23 42.36440 -107.07778 37999 ft 500 kts 302°
2026-05-07 18:23 42.40176 -107.15661 38001 ft 500 kts 302°
2026-05-07 18:24 42.43929 -107.23598 38000 ft 500 kts 302°
2026-05-07 18:24 42.47671 -107.31535 37999 ft 500 kts 302°
2026-05-07 18:25 42.49631 -107.35700 38000 ft 500 kts 302°
2026-05-07 18:25 42.51723 -107.40153 38000 ft 500 kts 302°
2026-05-07 18:26 42.55462 -107.48127 38001 ft 501 kts 302°
2026-05-07 18:26 42.59175 -107.56066 38001 ft 501 kts 302°
2026-05-07 18:27 42.62926 -107.64110 38000 ft 501 kts 302°
2026-05-07 18:27 42.66627 -107.72066 38000 ft 501 kts 302°
2026-05-07 18:28 42.70343 -107.80078 38000 ft 501 kts 302°
2026-05-07 18:28 42.74056 -107.88104 38000 ft 502 kts 302°
2026-05-07 18:29 42.77779 -107.96172 38001 ft 501 kts 302°
2026-05-07 18:29 42.81474 -108.04202 38000 ft 500 kts 302°
2026-05-07 18:30 42.85135 -108.12181 38000 ft 499 kts 302°
2026-05-07 18:30 42.88812 -108.20216 38000 ft 499 kts 302°
2026-05-07 18:31 42.92482 -108.28257 38000 ft 498 kts 302°
2026-05-07 18:31 42.96143 -108.36299 38000 ft 498 kts 302°
2026-05-07 18:32 42.99770 -108.44290 38000 ft 497 kts 301°
2026-05-07 18:32 43.03407 -108.52326 38000 ft 497 kts 301°
2026-05-07 18:33 43.06433 -108.59027 38000 ft 498 kts 301°
2026-05-07 18:33 43.10069 -108.67099 38000 ft 498 kts 301°
2026-05-07 18:34 43.13700 -108.75184 38000 ft 498 kts 301°
2026-05-07 18:34 43.17329 -108.83284 38000 ft 499 kts 301°
2026-05-07 18:35 43.20959 -108.91410 38000 ft 499 kts 301°
2026-05-07 18:35 43.24580 -108.99539 38000 ft 499 kts 301°
2026-05-07 18:36 43.28170 -109.07619 38000 ft 499 kts 301°
2026-05-07 18:36 43.31592 -109.15344 38000 ft 499 kts 301°
2026-05-07 18:37 43.35199 -109.23508 38000 ft 499 kts 301°
2026-05-07 18:37 43.38801 -109.31682 38000 ft 500 kts 301°
2026-05-07 18:38 43.42405 -109.39886 38001 ft 501 kts 301°
2026-05-07 18:38 43.46001 -109.48093 38000 ft 501 kts 301°
2026-05-07 18:39 43.49596 -109.56321 38000 ft 501 kts 301°
2026-05-07 18:39 43.53188 -109.64567 38000 ft 502 kts 301°
2026-05-07 18:40 43.56749 -109.72764 38001 ft 502 kts 301°
2026-05-07 18:40 43.60338 -109.81048 38000 ft 502 kts 301°
2026-05-07 18:41 43.63925 -109.89352 38000 ft 503 kts 301°
2026-05-07 18:41 43.67506 -109.97667 37999 ft 504 kts 300°
2026-05-07 18:42 43.71091 -110.06015 38000 ft 506 kts 300°
2026-05-07 18:42 43.74680 -110.14396 38001 ft 507 kts 300°
2026-05-07 18:43 43.78266 -110.22793 38001 ft 507 kts 300°
2026-05-07 18:43 43.81725 -110.31223 38001 ft 505 kts 295°
2026-05-07 18:44 43.83856 -110.40419 38001 ft 501 kts 283°
2026-05-07 18:44 43.85312 -110.49866 38000 ft 501 kts 281°
2026-05-07 18:45 43.86657 -110.59363 38000 ft 501 kts 281°
2026-05-07 18:45 43.87994 -110.68786 38000 ft 501 kts 281°
2026-05-07 18:46 43.89352 -110.78266 37999 ft 502 kts 281°
2026-05-07 18:46 43.90720 -110.87813 38002 ft 507 kts 281°
2026-05-07 18:47 43.92084 -110.97392 38002 ft 505 kts 281°
2026-05-07 18:47 43.93433 -111.06927 38001 ft 502 kts 281°
2026-05-07 18:48 43.94767 -111.16421 38001 ft 501 kts 281°
2026-05-07 18:48 43.96089 -111.25888 38000 ft 499 kts 281°
2026-05-07 18:49 43.97394 -111.35298 38001 ft 499 kts 281°
2026-05-07 18:49 43.98698 -111.44754 38001 ft 498 kts 281°
2026-05-07 18:50 43.99994 -111.54221 38000 ft 498 kts 281°
2026-05-07 18:50 44.01279 -111.63664 38001 ft 497 kts 281°
2026-05-07 18:51 44.02556 -111.73112 38000 ft 497 kts 281°
2026-05-07 18:51 44.03825 -111.82558 38000 ft 497 kts 280°
2026-05-07 18:52 44.05088 -111.92021 38000 ft 498 kts 280°
2026-05-07 18:52 44.06343 -112.01492 38000 ft 498 kts 280°
2026-05-07 18:53 44.07592 -112.10974 38001 ft 498 kts 280°
2026-05-07 18:53 44.08822 -112.20381 38001 ft 497 kts 280°
2026-05-07 18:54 44.10321 -112.29765 38000 ft 497 kts 285°
2026-05-07 18:54 44.12179 -112.39026 38000 ft 497 kts 285°
2026-05-07 18:55 44.14017 -112.48303 38000 ft 497 kts 285°
2026-05-07 18:55 44.15778 -112.57610 37999 ft 497 kts 284°
2026-05-07 18:56 44.17506 -112.66948 38000 ft 498 kts 284°
2026-05-07 18:56 44.19227 -112.76321 37999 ft 500 kts 284°
2026-05-07 18:57 44.20941 -112.85680 38000 ft 504 kts 284°
2026-05-07 18:57 44.22668 -112.95155 38001 ft 503 kts 284°
2026-05-07 18:58 44.24381 -113.04591 38000 ft 501 kts 284°
2026-05-07 18:58 44.26085 -113.14031 37998 ft 502 kts 284°
2026-05-07 18:59 44.27790 -113.23527 37998 ft 505 kts 284°
2026-05-07 18:59 44.29492 -113.33052 38002 ft 505 kts 284°
2026-05-07 19:00 44.31167 -113.42476 38001 ft 501 kts 284°
2026-05-07 19:00 44.32837 -113.51924 38000 ft 502 kts 284°
2026-05-07 19:01 44.34503 -113.61396 38001 ft 501 kts 283°
2026-05-07 19:01 44.36157 -113.70851 38000 ft 500 kts 283°
2026-05-07 19:02 44.37800 -113.80291 38000 ft 500 kts 283°
2026-05-07 19:02 44.39438 -113.89756 38000 ft 502 kts 283°
2026-05-07 19:03 44.41064 -113.99203 38000 ft 504 kts 283°
2026-05-07 19:03 44.42695 -114.08727 38001 ft 502 kts 283°
2026-05-07 19:04 44.44308 -114.18194 38001 ft 499 kts 283°
2026-05-07 19:04 44.45906 -114.27626 37998 ft 499 kts 283°
2026-05-07 19:05 44.47507 -114.37125 37999 ft 502 kts 283°
2026-05-07 19:05 44.49107 -114.46675 37999 ft 504 kts 283°
2026-05-07 19:06 44.50702 -114.56241 37999 ft 504 kts 283°
2026-05-07 19:06 44.53070 -114.70552 38001 ft 504 kts 283°
2026-05-07 19:07 44.54644 -114.80130 38001 ft 503 kts 283°
2026-05-07 19:07 44.56203 -114.89666 37998 ft 501 kts 283°
2026-05-07 19:08 44.57757 -114.99231 38001 ft 504 kts 283°
2026-05-07 19:08 44.59305 -115.08812 38002 ft 503 kts 283°
2026-05-07 19:09 44.60842 -115.18382 38000 ft 503 kts 282°
2026-05-07 19:09 44.62369 -115.27943 38000 ft 500 kts 282°
2026-05-07 19:10 44.63884 -115.37479 38000 ft 501 kts 282°
2026-05-07 19:10 44.65399 -115.47073 38000 ft 503 kts 282°
2026-05-07 19:11 44.66903 -115.56657 38000 ft 502 kts 282°
2026-05-07 19:11 44.68398 -115.66234 38001 ft 502 kts 282°
2026-05-07 19:12 44.69879 -115.75783 38001 ft 499 kts 282°
2026-05-07 19:12 44.71344 -115.85279 37999 ft 500 kts 282°
2026-05-07 19:13 44.72811 -115.94843 38001 ft 500 kts 282°
2026-05-07 19:13 44.74265 -116.04384 38001 ft 498 kts 282°
2026-05-07 19:14 44.75707 -116.13902 38001 ft 497 kts 282°
2026-05-07 19:14 44.76581 -116.23546 38196 ft 498 kts 270°
2026-05-07 19:15 44.76590 -116.28413 38383 ft 498 kts 269°
2026-05-07 19:15 44.76530 -116.33283 38562 ft 497 kts 268°
2026-05-07 19:15 44.76432 -116.38150 38794 ft 496 kts 268°
2026-05-07 19:15 44.76320 -116.42989 39073 ft 493 kts 268°
2026-05-07 19:16 44.76206 -116.47738 39331 ft 491 kts 268°
2026-05-07 19:16 44.76091 -116.52590 39525 ft 490 kts 268°
2026-05-07 19:16 44.75981 -116.57327 39634 ft 491 kts 268°
2026-05-07 19:16 44.75872 -116.62143 39677 ft 493 kts 268°
2026-05-07 19:17 44.75652 -116.71838 39751 ft 497 kts 268°
2026-05-07 19:17 44.75425 -116.81583 39937 ft 499 kts 268°
2026-05-07 19:18 44.75189 -116.91335 40001 ft 496 kts 268°
2026-05-07 19:18 44.74946 -117.01005 40002 ft 494 kts 268°
2026-05-07 19:19 44.74697 -117.10576 40000 ft 492 kts 268°
2026-05-07 19:19 44.74439 -117.20202 40000 ft 491 kts 268°
2026-05-07 19:20 44.74174 -117.29815 39999 ft 492 kts 268°
2026-05-07 19:20 44.73929 -117.38415 40000 ft 494 kts 268°
2026-05-07 19:21 44.73707 -117.46051 39997 ft 497 kts 268°
2026-05-07 19:21 44.73435 -117.55142 39997 ft 497 kts 268°
2026-05-07 19:22 44.73164 -117.63990 40000 ft 495 kts 267°
2026-05-07 19:22 44.72878 -117.73072 40000 ft 495 kts 267°
2026-05-07 19:23 44.72591 -117.81949 40000 ft 495 kts 267°
2026-05-07 19:23 44.72277 -117.91455 39998 ft 494 kts 267°
2026-05-07 19:24 44.71980 -118.00238 39999 ft 495 kts 267°
2026-05-07 19:24 44.71680 -118.08914 40000 ft 497 kts 267°
2026-05-07 19:25 44.71361 -118.17914 40000 ft 497 kts 267°
2026-05-07 19:25 44.71010 -118.27614 40000 ft 497 kts 267°
2026-05-07 19:26 44.70650 -118.37324 39999 ft 496 kts 267°
2026-05-07 19:26 44.70281 -118.47035 39999 ft 498 kts 267°
2026-05-07 19:27 44.69907 -118.56720 39999 ft 500 kts 267°
2026-05-07 19:27 44.69520 -118.66479 40000 ft 500 kts 266°
2026-05-07 19:28 44.69126 -118.76201 40002 ft 497 kts 266°
2026-05-07 19:28 44.68726 -118.85882 40001 ft 495 kts 266°
2026-05-07 19:29 44.68317 -118.95562 40000 ft 497 kts 266°
2026-05-07 19:29 44.67900 -119.05244 39998 ft 496 kts 266°
2026-05-07 19:30 44.67478 -119.14879 40000 ft 497 kts 266°
2026-05-07 19:30 44.67044 -119.24581 40000 ft 497 kts 266°
2026-05-07 19:31 44.66603 -119.34262 40000 ft 497 kts 266°
2026-05-07 19:31 44.66153 -119.43943 40000 ft 495 kts 266°
2026-05-07 19:32 44.65695 -119.53608 40000 ft 496 kts 266°
2026-05-07 19:32 44.65233 -119.63229 40002 ft 497 kts 266°
2026-05-07 19:33 44.64765 -119.72877 39999 ft 494 kts 266°
2026-05-07 19:33 44.64671 -119.82545 40000 ft 497 kts 271°
2026-05-07 19:34 44.64793 -119.92247 40001 ft 496 kts 271°
2026-05-07 19:34 44.64864 -120.01934 40001 ft 497 kts 270°
2026-05-07 19:35 44.64871 -120.11620 40001 ft 495 kts 270°
2026-05-07 19:35 44.64851 -120.21302 40001 ft 494 kts 270°
2026-05-07 19:36 44.64822 -120.30931 40001 ft 491 kts 270°
2026-05-07 19:36 44.64787 -120.40472 39999 ft 493 kts 270°
2026-05-07 19:37 44.64746 -120.50111 39999 ft 494 kts 269°
2026-05-07 19:37 44.64696 -120.59771 40001 ft 495 kts 269°
2026-05-07 19:38 44.64639 -120.69428 40001 ft 494 kts 269°
2026-05-07 19:38 44.64574 -120.79070 39999 ft 494 kts 269°
2026-05-07 19:39 44.64500 -120.88747 40000 ft 495 kts 269°
2026-05-07 19:39 44.64418 -120.98402 40001 ft 493 kts 269°
2026-05-07 19:40 44.64328 -121.07976 40000 ft 492 kts 269°
2026-05-07 19:40 44.64231 -121.17579 40000 ft 492 kts 269°
2026-05-07 19:41 44.64125 -121.27188 40002 ft 491 kts 269°
2026-05-07 19:41 44.64012 -121.36781 40000 ft 491 kts 269°
2026-05-07 19:42 44.63890 -121.46387 40000 ft 492 kts 269°
2026-05-07 19:42 44.63760 -121.55998 39998 ft 492 kts 269°
2026-05-07 19:43 44.63621 -121.65634 39999 ft 493 kts 269°
2026-05-07 19:43 44.63476 -121.75223 39999 ft 495 kts 269°
2026-05-07 19:44 44.63320 -121.84935 40000 ft 498 kts 269°
2026-05-07 19:44 44.63156 -121.94653 40003 ft 497 kts 269°
2026-05-07 19:45 44.62985 -122.04312 40000 ft 495 kts 268°
2026-05-07 19:45 44.62805 -122.13991 40001 ft 494 kts 268°
2026-05-07 19:46 44.62618 -122.23571 39999 ft 494 kts 268°
2026-05-07 19:46 44.62423 -122.33207 40001 ft 493 kts 268°
2026-05-07 19:47 44.62220 -122.42806 39999 ft 492 kts 268°
2026-05-07 19:47 44.62009 -122.52434 40000 ft 493 kts 268°
2026-05-07 19:48 44.61790 -122.62058 40001 ft 493 kts 268°
2026-05-07 19:48 44.61563 -122.71664 40002 ft 491 kts 268°
2026-05-07 19:49 44.61331 -122.81145 40001 ft 488 kts 268°
2026-05-07 19:49 44.61091 -122.90648 40000 ft 487 kts 268°
2026-05-07 19:50 44.60842 -123.00146 40000 ft 487 kts 268°
2026-05-07 19:50 44.60587 -123.09629 40000 ft 487 kts 268°
2026-05-07 19:51 44.60323 -123.19128 40000 ft 487 kts 268°
2026-05-07 19:51 44.60051 -123.28631 40000 ft 487 kts 268°
2026-05-07 19:52 44.59774 -123.38057 39999 ft 487 kts 268°
2026-05-07 19:52 44.59485 -123.47576 39999 ft 487 kts 267°
2026-05-07 19:53 44.59190 -123.57078 40000 ft 488 kts 267°
2026-05-07 19:53 44.58886 -123.66591 40000 ft 488 kts 267°
2026-05-07 19:54 44.58574 -123.76103 40001 ft 488 kts 267°
2026-05-07 19:54 44.58255 -123.85610 40001 ft 487 kts 267°
2026-05-07 19:55 44.57927 -123.95112 40002 ft 487 kts 267°
2026-05-07 19:55 44.57034 -124.04488 40001 ft 486 kts 254°
2026-05-07 19:56 44.54283 -124.13117 40004 ft 485 kts 239°
2026-05-07 19:56 44.50674 -124.21066 39999 ft 486 kts 237°
2026-05-07 19:57 44.46920 -124.28948 40001 ft 486 kts 236°
2026-05-07 19:57 44.43177 -124.36834 39999 ft 486 kts 237°
2026-05-07 19:58 44.39451 -124.44739 40001 ft 486 kts 237°
2026-05-07 19:58 44.35727 -124.52646 40000 ft 486 kts 237°
2026-05-07 19:59 44.32004 -124.60532 40000 ft 486 kts 237°
2026-05-07 19:59 44.28292 -124.68369 40000 ft 486 kts 237°
2026-05-07 20:00 44.24669 -124.75998 39999 ft 486 kts 236°
2026-05-07 20:00 44.20923 -124.83861 40002 ft 486 kts 236°
2026-05-07 20:01 44.17174 -124.91711 39999 ft 486 kts 236°
2026-05-07 20:01 44.13419 -124.99553 39999 ft 486 kts 236°
2026-05-07 20:02 44.09656 -125.07390 39999 ft 486 kts 236°
2026-05-07 20:02 44.05894 -125.15205 40001 ft 486 kts 236°
2026-05-07 20:03 44.02120 -125.23023 40001 ft 486 kts 236°
2026-05-07 20:03 43.98344 -125.30823 40000 ft 486 kts 236°
2026-05-07 20:04 43.94565 -125.38610 39999 ft 486 kts 236°
2026-05-07 20:04 43.90800 -125.46345 40001 ft 486 kts 236°
2026-05-07 20:05 43.87008 -125.54117 39999 ft 486 kts 236°
2026-05-07 20:05 43.83240 -125.61821 39999 ft 486 kts 236°
2026-05-07 20:06 43.79796 -125.68842 39999 ft 486 kts 236°
2026-05-07 20:06 43.76301 -125.75952 40001 ft 486 kts 236°
2026-05-07 20:07 43.73029 -125.82590 39998 ft 486 kts 236°
2026-05-07 20:07 43.69614 -125.89505 39998 ft 487 kts 236°
2026-05-07 20:08 43.65782 -125.97244 40002 ft 486 kts 236°
2026-05-07 20:08 43.62046 -126.04768 40002 ft 486 kts 236°
2026-05-07 20:09 43.58240 -126.12414 39999 ft 486 kts 236°
2026-05-07 20:10 43.52481 -126.23946 39999 ft 486 kts 236°
2026-05-07 20:10 43.48635 -126.31623 39999 ft 486 kts 235°
2026-05-07 20:11 43.44809 -126.39239 40000 ft 486 kts 235°
2026-05-07 20:11 43.40950 -126.46904 39999 ft 486 kts 235°
2026-05-07 20:12 43.37740 -126.53261 39999 ft 486 kts 235°
2026-05-07 20:12 43.33877 -126.60897 40001 ft 486 kts 235°
2026-05-07 20:13 43.30094 -126.68602 40001 ft 486 kts 240°
2026-05-07 20:13 43.26716 -126.76648 39999 ft 486 kts 240°
2026-05-07 20:14 43.23405 -126.84756 40002 ft 486 kts 241°
2026-05-07 20:14 43.20104 -126.92853 39999 ft 486 kts 241°
2026-05-07 20:15 43.16809 -127.00889 39999 ft 486 kts 240°
2026-05-07 20:15 43.13486 -127.08953 39999 ft 486 kts 240°
2026-05-07 20:16 43.10152 -127.17019 39999 ft 486 kts 240°
2026-05-07 20:16 43.06815 -127.25071 39999 ft 486 kts 240°
2026-05-07 20:17 43.03467 -127.33126 39999 ft 486 kts 240°
2026-05-07 20:17 43.00120 -127.41157 39999 ft 486 kts 240°
2026-05-07 20:18 42.96769 -127.49178 39999 ft 486 kts 240°
2026-05-07 20:18 42.93433 -127.57138 40002 ft 486 kts 240°
2026-05-07 20:19 42.90063 -127.65158 40002 ft 486 kts 240°
2026-05-07 20:19 42.86693 -127.73156 40001 ft 486 kts 240°
2026-05-07 20:20 42.83316 -127.81148 39999 ft 486 kts 240°
2026-05-07 20:20 42.79933 -127.89133 39999 ft 486 kts 240°
2026-05-07 20:21 42.76550 -127.97098 39999 ft 486 kts 240°
2026-05-07 20:21 42.73154 -128.05069 39999 ft 486 kts 240°
2026-05-07 20:22 42.69760 -128.13014 40001 ft 486 kts 240°
2026-05-07 20:22 42.66374 -128.20922 39999 ft 486 kts 240°
2026-05-07 20:23 42.62963 -128.28862 39999 ft 486 kts 240°
2026-05-07 20:23 42.59549 -128.36792 39999 ft 486 kts 240°
2026-05-07 20:24 42.56124 -128.44724 40000 ft 486 kts 239°
2026-05-07 20:24 42.52692 -128.52652 40004 ft 486 kts 239°
2026-05-07 20:25 42.49260 -128.60556 40002 ft 486 kts 239°
2026-05-07 20:25 42.45840 -128.68413 39999 ft 486 kts 239°
2026-05-07 20:26 42.42397 -128.76304 39999 ft 486 kts 239°
2026-05-07 20:26 42.38950 -128.84181 40000 ft 486 kts 239°
2026-05-07 20:27 42.35497 -128.92050 40001 ft 486 kts 239°
2026-05-07 20:27 42.32041 -128.99905 40000 ft 486 kts 239°
2026-05-07 20:28 42.28598 -129.07710 40001 ft 486 kts 239°
2026-05-07 20:28 42.25131 -129.15550 40001 ft 486 kts 239°
2026-05-07 20:29 42.21657 -129.23386 40000 ft 486 kts 239°
2026-05-07 20:29 42.18176 -129.31213 39999 ft 486 kts 239°
2026-05-07 20:30 42.14691 -129.39032 39999 ft 486 kts 239°
2026-05-07 20:30 42.11202 -129.46839 39999 ft 486 kts 239°
2026-05-07 20:31 42.07705 -129.54642 39999 ft 486 kts 239°
2026-05-07 20:31 42.04203 -129.62437 39999 ft 486 kts 239°
2026-05-07 20:32 42.00716 -129.70179 40001 ft 486 kts 239°
2026-05-07 20:32 41.97202 -129.77959 40002 ft 486 kts 239°
2026-05-07 20:33 41.93685 -129.85727 39999 ft 486 kts 239°
2026-05-07 20:33 41.90160 -129.93491 39999 ft 486 kts 239°
2026-05-07 20:34 41.86635 -130.01236 40003 ft 486 kts 238°
2026-05-07 20:34 41.83099 -130.08984 39999 ft 486 kts 238°
2026-05-07 20:35 41.79567 -130.16706 40004 ft 486 kts 238°
2026-05-07 20:35 41.76045 -130.24385 39999 ft 486 kts 238°
2026-05-07 20:36 41.72492 -130.32111 40003 ft 486 kts 238°
2026-05-07 20:36 41.68943 -130.39810 39999 ft 486 kts 238°
2026-05-07 20:37 41.65384 -130.47510 39999 ft 486 kts 238°
2026-05-07 20:37 41.61814 -130.55213 40001 ft 486 kts 238°
2026-05-07 20:38 41.58245 -130.62897 39999 ft 486 kts 238°
2026-05-07 20:38 41.54695 -130.70519 40001 ft 486 kts 238°
2026-05-07 20:39 41.51114 -130.78188 39999 ft 486 kts 238°
2026-05-07 20:39 41.47530 -130.85845 40002 ft 486 kts 238°
2026-05-07 20:40 41.43941 -130.93493 40002 ft 486 kts 238°
2026-05-07 20:40 41.40347 -131.01133 40002 ft 486 kts 238°
2026-05-07 20:41 41.36748 -131.08764 40002 ft 486 kts 238°
2026-05-07 20:41 41.33158 -131.16356 40001 ft 486 kts 238°
2026-05-07 20:42 41.29550 -131.23968 40001 ft 486 kts 238°
2026-05-07 20:42 41.25939 -131.31569 39999 ft 486 kts 238°
2026-05-07 20:43 41.22317 -131.39172 40001 ft 486 kts 238°
2026-05-07 20:43 41.18688 -131.46771 40000 ft 486 kts 238°
2026-05-07 20:44 41.15060 -131.54348 39999 ft 486 kts 238°
2026-05-07 20:44 41.11447 -131.61877 40003 ft 486 kts 237°
2026-05-07 20:45 41.07808 -131.69441 39999 ft 486 kts 237°
2026-05-07 20:45 41.04162 -131.77002 40002 ft 486 kts 237°
2026-05-07 20:46 41.00515 -131.84543 39999 ft 486 kts 237°
2026-05-07 20:46 40.96856 -131.92094 39999 ft 486 kts 237°
2026-05-07 20:47 40.93223 -131.99572 40001 ft 486 kts 237°
2026-05-07 20:47 40.89559 -132.07095 40000 ft 486 kts 237°
2026-05-07 20:48 40.85884 -132.14621 39999 ft 486 kts 237°
2026-05-07 20:48 40.82212 -132.22125 39999 ft 486 kts 237°
2026-05-07 20:49 40.78532 -132.29625 39999 ft 486 kts 237°
2026-05-07 20:49 40.74851 -132.37110 40001 ft 486 kts 237°
2026-05-07 20:50 40.71163 -132.44592 39999 ft 486 kts 237°
2026-05-07 20:50 40.67492 -132.52018 40000 ft 486 kts 237°
2026-05-07 20:51 40.63795 -132.59483 40001 ft 486 kts 237°
2026-05-07 20:51 40.60093 -132.66937 39999 ft 486 kts 237°
2026-05-07 20:52 40.56383 -132.74391 39999 ft 486 kts 237°
2026-05-07 20:52 40.52671 -132.81831 39999 ft 486 kts 237°
2026-05-07 20:53 40.48975 -132.89220 40000 ft 486 kts 237°
2026-05-07 20:53 40.45251 -132.96649 39999 ft 486 kts 237°
2026-05-07 20:54 40.41526 -133.04061 39999 ft 486 kts 237°
2026-05-07 20:54 40.37793 -133.11472 40001 ft 486 kts 237°
2026-05-07 20:55 40.34054 -133.18877 39999 ft 486 kts 237°
2026-05-07 20:55 40.30335 -133.26224 40001 ft 486 kts 236°
2026-05-07 20:56 40.26588 -133.33612 40000 ft 486 kts 236°
2026-05-07 20:56 40.22841 -133.40980 39999 ft 486 kts 236°
2026-05-07 20:57 40.19088 -133.48342 39999 ft 486 kts 236°
2026-05-07 20:57 40.15327 -133.55703 40001 ft 486 kts 236°
2026-05-07 20:58 40.11566 -133.63048 39999 ft 486 kts 236°
2026-05-07 20:58 40.07796 -133.70392 40000 ft 486 kts 236°
2026-05-07 20:59 40.04022 -133.77728 39999 ft 486 kts 236°
2026-05-07 20:59 40.00245 -133.85051 40001 ft 486 kts 236°
2026-05-07 21:00 39.96465 -133.92366 40000 ft 486 kts 236°
2026-05-07 21:00 39.92699 -133.99633 39999 ft 486 kts 236°
2026-05-07 21:01 39.88907 -134.06935 39999 ft 486 kts 236°
2026-05-07 21:01 39.85107 -134.14236 40001 ft 486 kts 236°
2026-05-07 21:02 39.81301 -134.21532 39999 ft 486 kts 236°
2026-05-07 21:02 39.77517 -134.28768 39999 ft 486 kts 236°
2026-05-07 21:03 39.74326 -134.34859 39999 ft 486 kts 236°
2026-05-07 21:03 39.70536 -134.42076 40000 ft 486 kts 236°
2026-05-07 21:04 39.66716 -134.49333 39999 ft 486 kts 236°
2026-05-07 21:04 39.62892 -134.56583 40001 ft 486 kts 236°
2026-05-07 21:05 39.59058 -134.63833 39999 ft 486 kts 236°
2026-05-07 21:05 39.55251 -134.71019 40001 ft 486 kts 236°
2026-05-07 21:06 39.51418 -134.78235 40001 ft 486 kts 236°
2026-05-07 21:06 39.47574 -134.85457 40001 ft 486 kts 236°
2026-05-07 21:07 39.43731 -134.92659 40001 ft 486 kts 235°
2026-05-07 21:07 39.39883 -134.99860 39999 ft 486 kts 235°
2026-05-07 21:08 39.36031 -135.07055 40001 ft 486 kts 235°
2026-05-07 21:08 39.32178 -135.14239 39999 ft 486 kts 235°
2026-05-07 21:09 39.28312 -135.21427 40002 ft 486 kts 235°
2026-05-07 21:09 39.24452 -135.28592 40001 ft 486 kts 235°
2026-05-07 21:10 39.20598 -135.35729 40002 ft 486 kts 235°
2026-05-07 21:10 39.16727 -135.42881 39999 ft 486 kts 235°
2026-05-07 21:11 39.12849 -135.50029 40001 ft 486 kts 235°
2026-05-07 21:11 39.07048 -135.60694 40001 ft 486 kts 235°
2026-05-07 21:12 39.03155 -135.67832 39999 ft 486 kts 235°
2026-05-07 21:12 38.99264 -135.74949 39999 ft 486 kts 235°
2026-05-07 21:13 38.95359 -135.82075 40002 ft 486 kts 235°
2026-05-07 21:13 38.91484 -135.89133 40001 ft 486 kts 235°
2026-05-07 21:14 38.87576 -135.96234 39999 ft 486 kts 235°
2026-05-07 21:14 38.83667 -136.03323 40001 ft 486 kts 235°
2026-05-07 21:15 38.79754 -136.10402 39999 ft 486 kts 234°
2026-05-07 21:15 38.75837 -136.17472 40001 ft 486 kts 234°
2026-05-07 21:16 38.71918 -136.24532 40002 ft 486 kts 234°
2026-05-07 21:16 38.67991 -136.31591 40000 ft 486 kts 234°
2026-05-07 21:17 38.64060 -136.38641 40002 ft 486 kts 234°
2026-05-07 21:17 38.60146 -136.45646 39999 ft 486 kts 234°
2026-05-07 21:18 38.56201 -136.52690 39999 ft 486 kts 234°
2026-05-07 21:18 38.52260 -136.59713 39999 ft 486 kts 234°
2026-05-07 21:19 38.48312 -136.66733 39999 ft 486 kts 234°
2026-05-07 21:19 38.44358 -136.73748 40001 ft 486 kts 234°
2026-05-07 21:20 38.40397 -136.80761 39999 ft 486 kts 234°
2026-05-07 21:20 38.36465 -136.87707 39999 ft 486 kts 234°
2026-05-07 21:21 38.32494 -136.94706 40000 ft 486 kts 234°
2026-05-07 21:21 38.28526 -137.01686 39999 ft 486 kts 234°
2026-05-07 21:22 38.24556 -137.08655 39999 ft 486 kts 234°
2026-05-07 21:22 38.20579 -137.15622 40002 ft 486 kts 234°
2026-05-07 21:23 38.16594 -137.22586 39999 ft 486 kts 234°
2026-05-07 21:23 38.12629 -137.29502 40002 ft 486 kts 234°
2026-05-07 21:24 38.08642 -137.36442 39999 ft 486 kts 234°
2026-05-07 21:24 38.04653 -137.43370 40001 ft 486 kts 234°
2026-05-07 21:25 38.00654 -137.50301 40002 ft 486 kts 234°
2026-05-07 21:25 37.96656 -137.57216 39999 ft 486 kts 234°
2026-05-07 21:26 37.92653 -137.64124 40000 ft 486 kts 234°
2026-05-07 21:26 37.88640 -137.71035 40001 ft 486 kts 234°
2026-05-07 21:27 37.84628 -137.77931 40002 ft 486 kts 233°
2026-05-07 21:27 37.80610 -137.84822 39999 ft 486 kts 233°
2026-05-07 21:28 37.76613 -137.91662 39999 ft 486 kts 233°
2026-05-07 21:28 37.72590 -137.98533 40003 ft 486 kts 233°
2026-05-07 21:29 37.68561 -138.05401 40000 ft 486 kts 233°
2026-05-07 21:29 37.64524 -138.12266 39999 ft 486 kts 233°
2026-05-07 21:30 37.60479 -138.19133 39999 ft 486 kts 233°
2026-05-07 21:30 37.56437 -138.25980 39999 ft 486 kts 233°
2026-05-07 21:31 37.52418 -138.32773 40001 ft 486 kts 233°
2026-05-07 21:31 37.48366 -138.39608 39999 ft 486 kts 233°
2026-05-07 21:32 37.44311 -138.46436 39999 ft 486 kts 233°
2026-05-07 21:32 37.40251 -138.53256 39999 ft 486 kts 233°
2026-05-07 21:33 37.36193 -138.60060 39999 ft 486 kts 233°
2026-05-07 21:33 37.32151 -138.66822 39999 ft 486 kts 233°
2026-05-07 21:34 37.28078 -138.73622 39999 ft 486 kts 233°
2026-05-07 21:34 37.24007 -138.80406 40003 ft 486 kts 233°
2026-05-07 21:35 37.19933 -138.87181 40001 ft 486 kts 233°
2026-05-07 21:35 37.15853 -138.93952 39999 ft 486 kts 233°
2026-05-07 21:36 37.11768 -139.00719 40001 ft 486 kts 233°
2026-05-07 21:36 37.07705 -139.07435 40000 ft 486 kts 233°
2026-05-07 21:37 37.03611 -139.14188 40002 ft 486 kts 233°
2026-05-07 21:37 36.99517 -139.20928 39999 ft 486 kts 233°
2026-05-07 21:38 36.95420 -139.27659 40000 ft 486 kts 233°
2026-05-07 21:38 36.91316 -139.34388 40002 ft 486 kts 233°
2026-05-07 21:39 36.87209 -139.41109 40001 ft 486 kts 233°
2026-05-07 21:39 36.83100 -139.47821 39999 ft 486 kts 233°
2026-05-07 21:40 36.78984 -139.54528 40000 ft 486 kts 232°
2026-05-07 21:40 36.74867 -139.61226 39999 ft 486 kts 232°
2026-05-07 21:41 36.70746 -139.67916 39999 ft 486 kts 232°
2026-05-07 21:41 36.66647 -139.74557 39999 ft 486 kts 232°
2026-05-07 21:42 36.62521 -139.81230 40001 ft 486 kts 232°
2026-05-07 21:42 36.58385 -139.87905 40000 ft 486 kts 232°
2026-05-07 21:43 36.54248 -139.94568 39999 ft 486 kts 232°
2026-05-07 21:43 36.50105 -140.01228 40001 ft 486 kts 232°
2026-05-07 21:44 36.45959 -140.07879 39999 ft 486 kts 232°
2026-05-07 21:44 36.41809 -140.14525 39999 ft 486 kts 232°
2026-05-07 21:45 36.37658 -140.21160 40000 ft 486 kts 232°
2026-05-07 21:45 36.33531 -140.27742 39999 ft 486 kts 232°
2026-05-07 21:46 36.29371 -140.34364 39999 ft 486 kts 232°
2026-05-07 21:46 36.25212 -140.40973 39999 ft 486 kts 232°
2026-05-07 21:47 36.21044 -140.47582 40001 ft 486 kts 232°
2026-05-07 21:47 36.16874 -140.54182 39999 ft 486 kts 232°
2026-05-07 21:48 36.12694 -140.60785 39999 ft 486 kts 232°
2026-05-07 21:48 36.08541 -140.67332 39999 ft 486 kts 232°
2026-05-07 21:49 36.04354 -140.73920 39999 ft 486 kts 232°
2026-05-07 21:49 36.00167 -140.80497 40001 ft 486 kts 232°
2026-05-07 21:50 35.95974 -140.87069 39999 ft 486 kts 232°
2026-05-07 21:50 35.91810 -140.93584 39999 ft 486 kts 232°
2026-05-07 21:51 35.87605 -141.00150 40001 ft 486 kts 232°
2026-05-07 21:51 35.83403 -141.06699 40002 ft 486 kts 232°
2026-05-07 21:52 35.79231 -141.13190 39999 ft 486 kts 232°
2026-05-07 21:52 35.75022 -141.19725 40003 ft 486 kts 232°
2026-05-07 21:53 35.71523 -141.25148 40000 ft 486 kts 232°
2026-05-07 21:53 35.67312 -141.31665 40001 ft 486 kts 231°
2026-05-07 21:54 35.63101 -141.38168 39999 ft 486 kts 231°
2026-05-07 21:54 35.58883 -141.44657 40003 ft 485 kts 231°
2026-05-07 21:55 35.54671 -141.51144 39999 ft 486 kts 231°
2026-05-07 21:55 35.50448 -141.57634 40001 ft 486 kts 231°
2026-05-07 21:56 35.46217 -141.64123 39999 ft 486 kts 231°
2026-05-07 21:56 35.41984 -141.70599 40002 ft 486 kts 231°
2026-05-07 21:57 35.37747 -141.77069 40001 ft 486 kts 231°
2026-05-07 21:57 35.33502 -141.83539 39999 ft 486 kts 231°
2026-05-07 21:58 35.29284 -141.89957 40000 ft 486 kts 231°
2026-05-07 21:58 35.25037 -141.96407 40000 ft 486 kts 231°
2026-05-07 21:59 35.20785 -142.02852 39999 ft 486 kts 231°
2026-05-07 21:59 35.16530 -142.09291 39999 ft 486 kts 231°
2026-05-07 22:00 35.12307 -142.15669 40001 ft 486 kts 231°
2026-05-07 22:00 35.08041 -142.22100 39999 ft 486 kts 231°
2026-05-07 22:01 35.03776 -142.28517 39999 ft 486 kts 231°
2026-05-07 22:01 34.99512 -142.34923 40001 ft 486 kts 231°
2026-05-07 22:02 34.95239 -142.41327 40002 ft 486 kts 231°
2026-05-07 22:02 34.90960 -142.47720 39999 ft 486 kts 231°
2026-05-07 22:03 34.86679 -142.54105 40000 ft 486 kts 231°
2026-05-07 22:03 34.82398 -142.60482 40000 ft 486 kts 231°
2026-05-07 22:04 34.78135 -142.66820 40001 ft 486 kts 231°
2026-05-07 22:04 34.73846 -142.73186 39999 ft 486 kts 231°
2026-05-07 22:05 34.69552 -142.79547 39999 ft 486 kts 231°
2026-05-07 22:05 34.65256 -142.85901 40000 ft 486 kts 231°
2026-05-07 22:06 34.60949 -142.92257 39999 ft 486 kts 231°
2026-05-07 22:06 34.56646 -142.98598 39999 ft 486 kts 231°
2026-05-07 22:07 34.52367 -143.04892 39999 ft 486 kts 231°
2026-05-07 22:07 34.48053 -143.11225 40001 ft 486 kts 230°
2026-05-07 22:08 34.43736 -143.17552 40001 ft 486 kts 230°
2026-05-07 22:08 34.39418 -143.23870 39999 ft 486 kts 230°
2026-05-07 22:09 34.35096 -143.30181 40000 ft 486 kts 230°
2026-05-07 22:09 34.30796 -143.36450 39999 ft 486 kts 230°
2026-05-07 22:10 34.26473 -143.42741 40001 ft 486 kts 230°
2026-05-07 22:10 34.22140 -143.49035 40001 ft 486 kts 230°
2026-05-07 22:11 34.17809 -143.55314 40002 ft 486 kts 230°
2026-05-07 22:11 34.13470 -143.61595 40001 ft 486 kts 230°
2026-05-07 22:12 34.09124 -143.67875 40002 ft 486 kts 230°
2026-05-07 22:12 34.04812 -143.74095 39999 ft 486 kts 230°
2026-05-07 22:13 34.00469 -143.80348 39999 ft 486 kts 230°
2026-05-07 22:13 33.96119 -143.86600 40000 ft 486 kts 230°
2026-05-07 22:14 33.91770 -143.92841 39999 ft 486 kts 230°
2026-05-07 22:14 33.87416 -143.99078 40001 ft 486 kts 230°
2026-05-07 22:15 33.83052 -144.05317 40001 ft 486 kts 230°
2026-05-07 22:15 33.78720 -144.11501 40001 ft 486 kts 230°
2026-05-07 22:16 33.74359 -144.17714 40000 ft 486 kts 230°
2026-05-07 22:16 33.69989 -144.23930 40000 ft 486 kts 230°
2026-05-07 22:17 33.65615 -144.30142 40001 ft 486 kts 230°
2026-05-07 22:17 33.61241 -144.36342 39999 ft 486 kts 230°
2026-05-07 22:18 33.54701 -144.45593 40001 ft 486 kts 230°
2026-05-07 22:19 33.50321 -144.51776 40000 ft 486 kts 230°
2026-05-07 22:19 33.45940 -144.57948 39999 ft 486 kts 230°
2026-05-07 22:20 33.41553 -144.64120 39999 ft 486 kts 230°
2026-05-07 22:20 33.37160 -144.70288 40000 ft 486 kts 230°
2026-05-07 22:21 33.32765 -144.76450 39999 ft 486 kts 230°
2026-05-07 22:21 33.28368 -144.82604 40002 ft 486 kts 230°
2026-05-07 22:22 33.23972 -144.88745 39999 ft 486 kts 230°
2026-05-07 22:22 33.19571 -144.94883 40000 ft 486 kts 230°
2026-05-07 22:23 33.15189 -145.00985 39999 ft 486 kts 229°
2026-05-07 22:23 33.10775 -145.07121 40001 ft 486 kts 229°
2026-05-07 22:24 33.06360 -145.13248 39999 ft 486 kts 229°
2026-05-07 22:24 33.01945 -145.19364 40001 ft 486 kts 229°
2026-05-07 22:25 32.97519 -145.25485 39999 ft 486 kts 229°
2026-05-07 22:25 32.93125 -145.31553 40001 ft 486 kts 229°
2026-05-07 22:26 32.88701 -145.37651 39999 ft 486 kts 229°
2026-05-07 22:26 32.84264 -145.43756 39999 ft 486 kts 229°
2026-05-07 22:27 32.79835 -145.49842 40002 ft 486 kts 229°
2026-05-07 22:27 32.75431 -145.55883 39999 ft 486 kts 229°
2026-05-07 22:28 32.70969 -145.61993 40000 ft 486 kts 229°
2026-05-07 22:28 32.66559 -145.68021 40002 ft 486 kts 229°
2026-05-07 22:29 32.62123 -145.74076 40001 ft 486 kts 229°
2026-05-07 22:29 32.57677 -145.80134 39999 ft 486 kts 229°
2026-05-07 22:30 32.53229 -145.86184 40000 ft 486 kts 229°
2026-05-07 22:30 32.48777 -145.92230 40001 ft 486 kts 229°
2026-05-07 22:31 32.44326 -145.98265 39999 ft 486 kts 229°
2026-05-07 22:31 32.39864 -146.04306 40001 ft 486 kts 229°
2026-05-07 22:32 32.35433 -146.10294 40000 ft 486 kts 229°
2026-05-07 22:32 32.30973 -146.16312 40000 ft 486 kts 229°
2026-05-07 22:33 32.26510 -146.22324 40001 ft 486 kts 229°
2026-05-07 22:33 32.22038 -146.28338 40001 ft 486 kts 229°
2026-05-07 22:34 32.17566 -146.34343 40001 ft 486 kts 229°
2026-05-07 22:34 32.13115 -146.40310 40001 ft 486 kts 229°
2026-05-07 22:35 32.08640 -146.46300 40001 ft 486 kts 229°
2026-05-07 22:35 32.04163 -146.52282 40002 ft 486 kts 229°
2026-05-07 22:36 31.99678 -146.58265 39999 ft 486 kts 229°
2026-05-07 22:36 31.95193 -146.64239 39999 ft 486 kts 229°
2026-05-07 22:37 31.90706 -146.70207 39999 ft 486 kts 229°
2026-05-07 22:37 31.86217 -146.76167 39999 ft 486 kts 229°
2026-05-07 22:38 31.81725 -146.82121 40000 ft 486 kts 229°
2026-05-07 22:38 31.77227 -146.88075 40002 ft 486 kts 229°
2026-05-07 22:39 31.72731 -146.94016 40000 ft 486 kts 229°
2026-05-07 22:39 31.68254 -146.99923 39999 ft 486 kts 228°
2026-05-07 22:40 31.63747 -147.05859 40001 ft 486 kts 228°
2026-05-07 22:40 31.59241 -147.11786 40000 ft 486 kts 228°
2026-05-07 22:41 31.54729 -147.17710 39999 ft 486 kts 228°
2026-05-07 22:41 31.50217 -147.23626 39999 ft 486 kts 228°
2026-05-07 22:42 31.45704 -147.29533 39999 ft 486 kts 228°
2026-05-07 22:42 31.41190 -147.35433 40001 ft 486 kts 228°
2026-05-07 22:43 31.36697 -147.41296 40001 ft 486 kts 228°
2026-05-07 22:43 31.32176 -147.47186 40001 ft 486 kts 228°
2026-05-07 22:44 31.28412 -147.52084 39999 ft 486 kts 228°
2026-05-07 22:44 31.23885 -147.57964 40001 ft 486 kts 228°
2026-05-07 22:45 31.19346 -147.63852 40001 ft 486 kts 228°
2026-05-07 22:45 31.14818 -147.69717 39999 ft 487 kts 228°
2026-05-07 22:46 31.10283 -147.75582 39999 ft 486 kts 228°
2026-05-07 22:46 31.05746 -147.81440 39999 ft 486 kts 228°
2026-05-07 22:47 31.01228 -147.87265 40000 ft 487 kts 228°
2026-05-07 22:47 30.96689 -147.93107 39999 ft 486 kts 228°
2026-05-07 22:48 30.92141 -147.98952 39999 ft 486 kts 228°
2026-05-07 22:48 30.87595 -148.04787 39999 ft 486 kts 228°
2026-05-07 22:49 30.83040 -148.10624 40001 ft 487 kts 228°
2026-05-07 22:49 30.78480 -148.16458 39999 ft 487 kts 228°
2026-05-07 22:50 30.73924 -148.22277 40001 ft 487 kts 228°
2026-05-07 22:50 30.69368 -148.28089 39999 ft 487 kts 228°
2026-05-07 22:51 30.64801 -148.33906 40000 ft 487 kts 227°
2026-05-07 22:51 30.60238 -148.39708 40001 ft 487 kts 227°
2026-05-07 22:52 30.55696 -148.45476 39999 ft 487 kts 227°
2026-05-07 22:52 30.51141 -148.51251 39999 ft 487 kts 227°
2026-05-07 22:53 30.46572 -148.57035 39999 ft 487 kts 227°
2026-05-07 22:53 30.41994 -148.62822 39999 ft 486 kts 227°
2026-05-07 22:54 30.37414 -148.68602 40001 ft 486 kts 227°
2026-05-07 22:54 30.32861 -148.74340 40000 ft 486 kts 227°
2026-05-07 22:55 30.28251 -148.80141 40001 ft 486 kts 227°
2026-05-07 22:55 30.23690 -148.85874 40001 ft 487 kts 227°
2026-05-07 22:56 30.19104 -148.91627 39999 ft 487 kts 227°
2026-05-07 22:56 30.14517 -148.97375 40001 ft 487 kts 227°
2026-05-07 22:57 30.09919 -149.03126 40000 ft 486 kts 227°
2026-05-07 22:57 30.05318 -149.08875 39999 ft 487 kts 227°
2026-05-07 22:58 30.00756 -149.14574 39999 ft 487 kts 227°
2026-05-07 22:58 29.96151 -149.20318 40002 ft 487 kts 227°
2026-05-07 22:59 29.91553 -149.26045 39999 ft 487 kts 227°
2026-05-07 22:59 29.86956 -149.31762 39999 ft 487 kts 227°
2026-05-07 23:00 29.82353 -149.37478 40001 ft 487 kts 227°
2026-05-07 23:00 29.77771 -149.43161 39999 ft 487 kts 227°
2026-05-07 23:01 29.73159 -149.48873 40001 ft 487 kts 227°
2026-05-07 23:01 29.68547 -149.54576 40000 ft 487 kts 227°
2026-05-07 23:02 29.63931 -149.60276 39999 ft 487 kts 227°
2026-05-07 23:02 29.59316 -149.65966 40003 ft 487 kts 227°
2026-05-07 23:03 29.54700 -149.71650 40002 ft 487 kts 227°
2026-05-07 23:03 29.50099 -149.77305 40000 ft 487 kts 227°
2026-05-07 23:04 29.45474 -149.82984 40000 ft 487 kts 227°
2026-05-07 23:04 29.40851 -149.88651 39999 ft 487 kts 227°
2026-05-07 23:05 29.36221 -149.94319 39999 ft 487 kts 227°
2026-05-07 23:05 29.31593 -149.99977 39999 ft 487 kts 227°
2026-05-07 23:06 29.26961 -150.05631 39999 ft 486 kts 227°
2026-05-07 23:06 29.22329 -150.11278 39999 ft 487 kts 227°
2026-05-07 23:07 29.18188 -150.16319 39998 ft 487 kts 227°
2026-05-07 23:07 29.14172 -150.21201 40000 ft 487 kts 227°
2026-05-07 23:08 29.09983 -150.26288 39999 ft 487 kts 227°
2026-05-07 23:08 29.05779 -150.31386 40000 ft 487 kts 227°
2026-05-07 23:09 29.01599 -150.36450 40001 ft 487 kts 227°
2026-05-07 23:09 28.97588 -150.41303 39999 ft 487 kts 227°
2026-05-07 23:10 28.92887 -150.46981 40002 ft 486 kts 227°
2026-05-07 23:10 28.88559 -150.52204 40001 ft 486 kts 227°
2026-05-07 23:11 28.84954 -150.56548 39999 ft 487 kts 226°
2026-05-07 23:11 28.80532 -150.61871 39999 ft 487 kts 226°
2026-05-07 23:12 28.76656 -150.66530 40000 ft 487 kts 226°
2026-05-07 23:12 28.72230 -150.71844 40002 ft 486 kts 226°
2026-05-07 23:13 28.68897 -150.75840 39998 ft 486 kts 226°
2026-05-07 23:13 28.64155 -150.81521 40000 ft 486 kts 226°
2026-05-07 23:14 28.59487 -150.87105 40001 ft 486 kts 226°
2026-05-07 23:14 28.54941 -150.92535 39998 ft 487 kts 226°
2026-05-07 23:15 28.50762 -150.97521 40001 ft 487 kts 226°
2026-05-07 23:15 28.46685 -151.02379 40000 ft 487 kts 226°
2026-05-07 23:16 28.42819 -151.06980 40002 ft 486 kts 226°
2026-05-07 23:16 28.38753 -151.11814 39999 ft 487 kts 226°
2026-05-07 23:17 28.34553 -151.16800 40000 ft 487 kts 226°
2026-05-07 23:17 28.30446 -151.21670 40002 ft 486 kts 226°
2026-05-07 23:18 28.25762 -151.27219 39999 ft 486 kts 226°
2026-05-07 23:18 28.21494 -151.32267 40000 ft 487 kts 226°
2026-05-07 23:19 28.16888 -151.37709 40002 ft 487 kts 226°
2026-05-07 23:19 28.12199 -151.43241 39999 ft 486 kts 226°
2026-05-07 23:20 28.07505 -151.48771 40000 ft 487 kts 226°
2026-05-07 23:20 28.02838 -151.54262 39999 ft 487 kts 226°
2026-05-07 23:21 27.98140 -151.59782 40002 ft 487 kts 226°
2026-05-07 23:21 27.93436 -151.65303 39999 ft 487 kts 226°
2026-05-07 23:22 27.88732 -151.70815 39999 ft 487 kts 226°
2026-05-07 23:22 27.84031 -151.76317 40002 ft 487 kts 226°
2026-05-07 23:23 27.79329 -151.81813 39999 ft 487 kts 226°
2026-05-07 23:23 27.74651 -151.87273 39999 ft 487 kts 226°
2026-05-07 23:24 27.70056 -151.92629 40000 ft 487 kts 226°
2026-05-07 23:24 27.66433 -151.96848 40000 ft 487 kts 226°
2026-05-07 23:25 27.61524 -152.02558 39999 ft 487 kts 226°
2026-05-07 23:25 27.57391 -152.07358 40001 ft 487 kts 226°
2026-05-07 23:26 27.53222 -152.12195 39999 ft 486 kts 226°
2026-05-07 23:26 27.48869 -152.17239 39999 ft 487 kts 226°
2026-05-07 23:27 27.42079 -152.25095 39998 ft 486 kts 226°
2026-05-07 23:27 27.37674 -152.30184 39999 ft 487 kts 226°
2026-05-07 23:28 27.33607 -152.34876 39997 ft 487 kts 226°
2026-05-07 23:28 27.29096 -152.40075 40003 ft 487 kts 226°
2026-05-07 23:29 27.25379 -152.44354 40000 ft 486 kts 226°
2026-05-07 23:29 27.20767 -152.49658 40001 ft 486 kts 226°
2026-05-07 23:30 27.16899 -152.54100 39999 ft 486 kts 226°
2026-05-07 23:30 27.12400 -152.59262 40001 ft 487 kts 226°
2026-05-07 23:31 27.08455 -152.63783 39999 ft 487 kts 226°
2026-05-07 23:31 27.04730 -152.68047 40001 ft 486 kts 226°
2026-05-07 23:32 27.00643 -152.72721 40000 ft 487 kts 226°
2026-05-07 23:32 26.96194 -152.77802 40001 ft 487 kts 226°
2026-05-07 23:33 26.92178 -152.82384 39998 ft 486 kts 225°
2026-05-07 23:33 26.88065 -152.87072 40001 ft 487 kts 225°
2026-05-07 23:34 26.84182 -152.91492 40001 ft 487 kts 225°
2026-05-07 23:34 26.80643 -152.95517 39999 ft 487 kts 225°
2026-05-07 23:35 26.76948 -152.99716 39998 ft 487 kts 225°
2026-05-07 23:35 26.72882 -153.04330 40001 ft 487 kts 225°
2026-05-07 23:36 26.68110 -153.09740 40001 ft 486 kts 225°
2026-05-07 23:36 26.63355 -153.15124 40000 ft 486 kts 225°
2026-05-07 23:37 26.58737 -153.20346 40001 ft 487 kts 225°
2026-05-07 23:37 26.54378 -153.25271 40000 ft 487 kts 225°
2026-05-07 23:38 26.50038 -153.30167 39999 ft 487 kts 225°
2026-05-07 23:38 26.45257 -153.35555 40000 ft 487 kts 225°
2026-05-07 23:39 26.40489 -153.40921 40002 ft 487 kts 225°
2026-05-07 23:39 26.35716 -153.46286 40000 ft 487 kts 225°
2026-05-07 23:40 26.30947 -153.51641 39999 ft 487 kts 225°
2026-05-07 23:40 26.26175 -153.56991 40001 ft 487 kts 225°
2026-05-07 23:41 26.21399 -153.62340 40002 ft 487 kts 225°
2026-05-07 23:41 26.16656 -153.67645 39999 ft 487 kts 225°
2026-05-07 23:42 26.11881 -153.72979 40002 ft 487 kts 225°
2026-05-07 23:42 26.07098 -153.78316 39999 ft 487 kts 225°
2026-05-07 23:43 26.03041 -153.82837 40000 ft 487 kts 225°
2026-05-07 23:43 25.98840 -153.87515 40001 ft 487 kts 225°
2026-05-07 23:44 25.94805 -153.92003 40001 ft 487 kts 225°
2026-05-07 23:44 25.89890 -153.97463 39999 ft 487 kts 225°
2026-05-07 23:45 25.85102 -154.02775 39999 ft 487 kts 225°
2026-05-07 23:45 25.80311 -154.08085 39999 ft 487 kts 225°
2026-05-07 23:46 25.75515 -154.13393 40000 ft 487 kts 225°
2026-05-07 23:46 25.70723 -154.18690 40003 ft 487 kts 225°
2026-05-07 23:47 25.65921 -154.23993 39999 ft 487 kts 225°
2026-05-07 23:47 25.61148 -154.29257 39999 ft 487 kts 225°
2026-05-07 23:48 25.56351 -154.34541 39999 ft 487 kts 225°
2026-05-07 23:48 25.51542 -154.39832 39999 ft 487 kts 225°
2026-05-07 23:49 25.46740 -154.45109 40000 ft 487 kts 225°
2026-05-07 23:49 25.41935 -154.50383 40001 ft 487 kts 225°
2026-05-07 23:50 25.37122 -154.55660 40000 ft 487 kts 225°
2026-05-07 23:50 25.32315 -154.60923 39999 ft 487 kts 225°
2026-05-07 23:51 25.27500 -154.66190 40000 ft 487 kts 225°
2026-05-07 23:51 25.22718 -154.71414 40002 ft 487 kts 225°
2026-05-07 23:52 25.17896 -154.76675 40002 ft 487 kts 225°
2026-05-07 23:52 25.13079 -154.81924 39999 ft 487 kts 225°
2026-05-07 23:53 25.08256 -154.87175 40001 ft 487 kts 225°
2026-05-07 23:53 25.03437 -154.92415 40001 ft 487 kts 225°
2026-05-07 23:54 24.98641 -154.97624 39188 ft 484 kts 225°
2026-05-07 23:54 24.96262 -155.00204 39412 ft 474 kts 225°
2026-05-07 23:54 24.93922 -155.02741 39652 ft 468 kts 225°
2026-05-07 23:55 24.91607 -155.05250 39883 ft 466 kts 225°
2026-05-07 23:55 24.89302 -155.07748 40107 ft 465 kts 225°
2026-05-07 23:55 24.84681 -155.12751 40160 ft 464 kts 225°
2026-05-07 23:56 24.80065 -155.17742 40162 ft 465 kts 225°
2026-05-07 23:56 24.75477 -155.22698 40159 ft 465 kts 225°
2026-05-07 23:57 24.71150 -155.27981 40159 ft 465 kts 234°
2026-05-07 23:57 24.67400 -155.33777 40158 ft 465 kts 235°
2026-05-07 23:58 24.63688 -155.39600 40158 ft 465 kts 235°
2026-05-07 23:58 24.59978 -155.45424 40155 ft 465 kts 235°
2026-05-07 23:59 24.56266 -155.51247 40154 ft 465 kts 235°
2026-05-07 23:59 24.52551 -155.57067 40151 ft 465 kts 235°
2026-05-08 00:00 24.48854 -155.62853 40151 ft 465 kts 235°
2026-05-08 00:00 24.45132 -155.68672 40150 ft 465 kts 235°
2026-05-08 00:01 24.41415 -155.74475 40154 ft 465 kts 235°
2026-05-08 00:01 24.37693 -155.80280 40149 ft 464 kts 235°
2026-05-08 00:02 24.33973 -155.86074 40148 ft 464 kts 235°
2026-05-08 00:02 24.30268 -155.91838 40146 ft 464 kts 235°
2026-05-08 00:03 24.26523 -155.97657 40153 ft 464 kts 235°
2026-05-08 00:03 24.22821 -156.03404 40151 ft 464 kts 235°
2026-05-08 00:04 24.19099 -156.09175 40150 ft 464 kts 235°
2026-05-08 00:04 24.15369 -156.14951 40145 ft 464 kts 235°
2026-05-08 00:05 24.11639 -156.20722 40144 ft 464 kts 235°
2026-05-08 00:05 24.07860 -156.26450 40143 ft 464 kts 232°
2026-05-08 00:06 24.03106 -156.31216 40144 ft 467 kts 214°
2026-05-08 00:06 23.97177 -156.34133 40143 ft 471 kts 198°
2026-05-08 00:07 23.90832 -156.36011 40139 ft 473 kts 197°
2026-05-08 00:07 23.84517 -156.37862 40141 ft 473 kts 197°
2026-05-08 00:08 23.78115 -156.39752 40141 ft 473 kts 198°
2026-05-08 00:08 23.71798 -156.41621 40137 ft 473 kts 198°
2026-05-08 00:09 23.65432 -156.43504 40137 ft 474 kts 198°
2026-05-08 00:09 23.59066 -156.45386 40139 ft 474 kts 198°
2026-05-08 00:10 23.52693 -156.47268 40134 ft 474 kts 198°
2026-05-08 00:10 23.46316 -156.49150 40135 ft 475 kts 198°
2026-05-08 00:11 23.39931 -156.51032 40133 ft 475 kts 198°
2026-05-08 00:11 23.33547 -156.52912 40134 ft 475 kts 198°
2026-05-08 00:12 23.27166 -156.54789 40134 ft 475 kts 198°
2026-05-08 00:12 23.20773 -156.56668 40130 ft 475 kts 198°
2026-05-08 00:13 23.14421 -156.58532 40133 ft 476 kts 198°
2026-05-08 00:13 23.08021 -156.60409 40128 ft 476 kts 198°
2026-05-08 00:14 23.01625 -156.62284 40127 ft 476 kts 198°
2026-05-08 00:14 22.95228 -156.64156 40128 ft 476 kts 198°
2026-05-08 00:15 22.88828 -156.66028 40128 ft 476 kts 198°
2026-05-08 00:15 22.82423 -156.67899 40127 ft 476 kts 198°
2026-05-08 00:16 22.76022 -156.69769 40121 ft 476 kts 198°
2026-05-08 00:16 22.69663 -156.71643 40123 ft 476 kts 199°
2026-05-08 00:17 22.63265 -156.73527 40122 ft 476 kts 199°
2026-05-08 00:17 22.56865 -156.75410 40120 ft 477 kts 199°
2026-05-08 00:18 22.50460 -156.77293 40116 ft 477 kts 199°
2026-05-08 00:18 22.47263 -156.78232 39997 ft 477 kts 199°
2026-05-08 00:18 22.44059 -156.79173 39988 ft 477 kts 199°
2026-05-08 00:19 22.37652 -156.81055 39988 ft 477 kts 199°
2026-05-08 00:19 22.34467 -156.81982 39661 ft 473 kts 199°
2026-05-08 00:19 22.31279 -156.82906 38904 ft 476 kts 199°
2026-05-08 00:20 22.28060 -156.83839 38026 ft 480 kts 198°
2026-05-08 00:20 22.24875 -156.84762 37329 ft 480 kts 198°
2026-05-08 00:20 22.21643 -156.85698 36640 ft 481 kts 198°
2026-05-08 00:20 22.18409 -156.86635 35938 ft 481 kts 198°
2026-05-08 00:21 22.15167 -156.87574 35204 ft 483 kts 197°
2026-05-08 00:21 22.11904 -156.88519 34393 ft 487 kts 197°
2026-05-08 00:21 22.08625 -156.89468 33483 ft 490 kts 197°
2026-05-08 00:21 22.05314 -156.90425 32602 ft 492 kts 197°
2026-05-08 00:22 22.02001 -156.91382 31704 ft 494 kts 197°
2026-05-08 00:22 21.99794 -156.92020 31100 ft 496 kts 196°
2026-05-08 00:22 21.96453 -156.92984 30149 ft 499 kts 196°
2026-05-08 00:22 21.93086 -156.93956 29102 ft 501 kts 196°
2026-05-08 00:23 21.89737 -156.94922 28429 ft 495 kts 196°
2026-05-08 00:23 21.86479 -156.96006 27744 ft 489 kts 203°
2026-05-08 00:23 21.83520 -156.97780 27037 ft 483 kts 218°
2026-05-08 00:23 21.81106 -157.00256 26366 ft 477 kts 229°
2026-05-08 00:24 21.78976 -157.02978 25687 ft 474 kts 231°
2026-05-08 00:24 21.76894 -157.05706 25027 ft 470 kts 231°
2026-05-08 00:24 21.74820 -157.08411 24373 ft 467 kts 231°
2026-05-08 00:24 21.72749 -157.11098 23695 ft 464 kts 230°
2026-05-08 00:25 21.70716 -157.13724 22960 ft 461 kts 230°
2026-05-08 00:25 21.68687 -157.16339 22290 ft 456 kts 230°
2026-05-08 00:25 21.66655 -157.18953 21631 ft 450 kts 230°
2026-05-08 00:25 21.64652 -157.21529 20964 ft 446 kts 230°
2026-05-08 00:26 21.62671 -157.24075 20305 ft 441 kts 230°
2026-05-08 00:26 21.60709 -157.26594 19637 ft 438 kts 230°
2026-05-08 00:26 21.58763 -157.29091 18981 ft 434 kts 230°
2026-05-08 00:26 21.56829 -157.31571 18287 ft 431 kts 230°
2026-05-08 00:27 21.54906 -157.34036 17549 ft 428 kts 230°
2026-05-08 00:27 21.53004 -157.36474 16864 ft 423 kts 230°
2026-05-08 00:27 21.51124 -157.38881 16196 ft 417 kts 230°
2026-05-08 00:27 21.49313 -157.41199 15541 ft 391 kts 230°
2026-05-08 00:28 21.47580 -157.43417 14922 ft 387 kts 230°
2026-05-08 00:28 21.45867 -157.45608 14284 ft 388 kts 230°
2026-05-08 00:28 21.44132 -157.47827 13595 ft 387 kts 230°
2026-05-08 00:28 21.42402 -157.50039 12917 ft 385 kts 230°
2026-05-08 00:29 21.40686 -157.52238 12243 ft 382 kts 230°
2026-05-08 00:29 21.38981 -157.54418 11579 ft 379 kts 230°
2026-05-08 00:29 21.37307 -157.56549 11164 ft 357 kts 230°
2026-05-08 00:29 21.35800 -157.58468 11071 ft 318 kts 230°
2026-05-08 00:30 21.34449 -157.60189 10980 ft 288 kts 230°
2026-05-08 00:30 21.33185 -157.61800 10891 ft 277 kts 230°
2026-05-08 00:30 21.31981 -157.63341 10765 ft 269 kts 230°
2026-05-08 00:30 21.30796 -157.64852 10654 ft 262 kts 230°
2026-05-08 00:31 21.29611 -157.66356 10534 ft 265 kts 230°
2026-05-08 00:31 21.28423 -157.67865 10410 ft 265 kts 230°
2026-05-08 00:31 21.27267 -157.69400 10169 ft 265 kts 234°
2026-05-08 00:31 21.26481 -157.71172 9834 ft 266 kts 255°
2026-05-08 00:32 21.26184 -157.73188 9546 ft 282 kts 263°
2026-05-08 00:32 21.26004 -157.75299 9277 ft 285 kts 264°
2026-05-08 00:32 21.25828 -157.77413 8856 ft 285 kts 264°
2026-05-08 00:32 21.25644 -157.79520 8466 ft 282 kts 264°
2026-05-08 00:33 21.25457 -157.81607 8120 ft 280 kts 264°
2026-05-08 00:33 21.25268 -157.83681 7781 ft 279 kts 264°
2026-05-08 00:33 21.25083 -157.85721 7452 ft 278 kts 264°
2026-05-08 00:33 21.24896 -157.87756 7245 ft 264 kts 264°
2026-05-08 00:34 21.24725 -157.89617 7137 ft 240 kts 264°
2026-05-08 00:34 21.24562 -157.91369 7041 ft 235 kts 264°
2026-05-08 00:34 21.24401 -157.93105 6925 ft 233 kts 264°
2026-05-08 00:34 21.24240 -157.94836 6703 ft 234 kts 264°
2026-05-08 00:35 21.24079 -157.96564 6425 ft 233 kts 264°
2026-05-08 00:35 21.23918 -157.98289 6146 ft 232 kts 264°
2026-05-08 00:35 21.23811 -158.00018 5900 ft 232 kts 269°
2026-05-08 00:35 21.23798 -158.01743 5781 ft 229 kts 270°
2026-05-08 00:36 21.23800 -158.03409 5677 ft 219 kts 270°
2026-05-08 00:36 21.23802 -158.05010 5542 ft 212 kts 270°
2026-05-08 00:36 21.23803 -158.06581 5324 ft 209 kts 270°
2026-05-08 00:36 21.23803 -158.08133 5162 ft 208 kts 270°
2026-05-08 00:37 21.23803 -158.09683 5003 ft 208 kts 270°
2026-05-08 00:37 21.23802 -158.11229 4856 ft 208 kts 270°
2026-05-08 00:37 21.23801 -158.12760 4701 ft 208 kts 270°
2026-05-08 00:38 21.24487 -158.15678 4422 ft 204 kts 313°
2026-05-08 00:38 21.25652 -158.16506 4350 ft 202 kts 344°
2026-05-08 00:38 21.27028 -158.16696 4258 ft 200 kts
2026-05-08 00:38 21.28427 -158.16681 4174 ft 201 kts
2026-05-08 00:39 21.29822 -158.16637 4118 ft 200 kts
2026-05-08 00:39 21.31156 -158.16256 4028 ft 198 kts 29°
2026-05-08 00:39 21.32054 -158.15177 3894 ft 195 kts 63°
2026-05-08 00:39 21.32534 -158.13815 3636 ft 197 kts 79°
2026-05-08 00:40 21.32580 -158.12357 3390 ft 195 kts 92°
2026-05-08 00:40 21.32523 -158.10897 3054 ft 196 kts 90°
2026-05-08 00:40 21.32518 -158.09460 2769 ft 191 kts 88°
2026-05-08 00:40 21.32526 -158.08082 2517 ft 179 kts 88°
2026-05-08 00:41 21.32522 -158.06777 2302 ft 171 kts 88°
2026-05-08 00:41 21.32523 -158.05517 2062 ft 165 kts 87°
2026-05-08 00:41 21.32524 -158.04302 1861 ft 161 kts 87°
2026-05-08 00:41 21.32524 -158.03112 1641 ft 158 kts 88°
2026-05-08 00:42 21.32522 -158.01974 1447 ft 151 kts 86°
2026-05-08 00:42 21.32524 -158.00871 1241 ft 144 kts 88°
2026-05-08 00:42 21.32523 -157.99825 1067 ft 136 kts 88°
2026-05-08 00:42 21.32523 -157.98822 847 ft 132 kts 88°
2026-05-08 00:43 21.32523 -157.97840 632 ft 139 kts 88°
2026-05-08 00:43 21.32528 -157.96831 506 ft 134 kts 88°
2026-05-08 00:43 21.32523 -157.95828 334 ft 135 kts 88°
2026-05-08 00:43 21.32525 -157.94824 147 ft 134 kts 89°
2026-05-08 00:44 21.32527 -157.93841 36 ft 127 kts 88°
2026-05-08 00:44 21.32526 -157.93001 24 ft 82 kts 90°
2026-05-08 00:44 21.32526 -157.92666 28 ft 35 kts 90°
2026-05-08 00:44 21.32526 -157.92420 30 ft 31 kts 89°
2026-05-08 00:45 21.32562 -157.92257 27 ft 16 kts 60°
2026-05-08 00:45 21.32624 -157.92146 30 ft 18 kts 62°
2026-05-08 00:45 21.32687 -157.92026 28 ft 19 kts 60°
2026-05-08 00:45 21.32750 -157.91913 25 ft 4 kts 54°
2026-05-08 00:46 21.32772 -157.91885 24 ft 10 kts 44°
2026-05-08 00:46 21.32824 -157.91854 23 ft 7 kts
2026-05-08 00:46 21.32879 -157.91844 25 ft 9 kts 10°
2026-05-08 00:46 21.32916 -157.91847 27 ft 1 kts 312°
2026-05-08 00:47 21.32917 -157.91853 29 ft 0 kts 292°
2026-05-08 00:47 21.32912 -157.91861 26 ft 2 kts 239°
2026-05-08 00:47 21.32855 -157.91905 24 ft 15 kts 224°
2026-05-08 00:47 21.32850 -157.91932 23 ft 1 kts 305°
2026-05-08 00:48 21.32853 -157.91935 23 ft 4 kts 315°
2026-05-08 00:48 21.32893 -157.91971 26 ft 0 kts 319°